| time (UTC) | temp C | wind direction | speed KPH | gust KPH | rain 1hr cm | rain 24hr cm | rain mn cm | humidity % | barometer mb |
| 20260506150803 | 25 | 209 | 3.2 | 16.1 | 0.00 | 0.00 | 0.00 | 70 | 1017.2 |
| 20260506150703 | 25 | 275 | 3.2 | 16.1 | 0.00 | 0.00 | 0.00 | 71 | 1017.1 |
| 20260506150604 | 25 | 84 | 4.8 | 16.1 | 0.00 | 0.00 | 0.00 | 69 | 1017.1 |
| 20260506150506 | 25 | 77 | 6.4 | 16.1 | 0.00 | 0.00 | 0.00 | 69 | 1017.2 |
| 20260506150403 | 25 | 178 | 8.0 | 16.1 | 0.00 | 0.00 | 0.00 | 68 | 1017.0 |
| 20260506150305 | 25 | 220 | 8.0 | 16.1 | 0.00 | 0.00 | 0.00 | 69 | 1017.1 |
| 20260506150205 | 25 | 165 | 6.4 | 16.1 | 0.00 | 0.00 | 0.00 | 69 | 1017.1 |
| 20260506150104 | 25 | 140 | 9.7 | 16.1 | 0.00 | 0.00 | 0.00 | 68 | 1017.1 |
| 20260506150008 | 25 | 180 | 8.0 | 16.1 | 0.00 | 0.00 | 0.00 | 68 | 1017.1 |
| 20260506145904 | 25 | 155 | 8.0 | 12.9 | 0.00 | 0.00 | 0.00 | 69 | 1017.1 |
| 20260506145803 | 25 | 195 | 8.0 | 14.5 | 0.00 | 0.00 | 0.00 | 69 | 1017.0 |
| 20260506145704 | 25 | 139 | 8.0 | 14.5 | 0.00 | 0.00 | 0.00 | 69 | 1017.0 |
| 20260506145603 | 25 | 101 | 6.4 | 14.5 | 0.00 | 0.00 | 0.00 | 70 | 1017.0 |
| 20260506145506 | 25 | 169 | 4.8 | 16.1 | 0.00 | 0.00 | 0.00 | 70 | 1017.0 |
| 20260506145405 | 25 | 188 | 4.8 | 16.1 | 0.00 | 0.00 | 0.00 | 70 | 1017.0 |
| 20260506145305 | 25 | 190 | 4.8 | 16.1 | 0.00 | 0.00 | 0.00 | 71 | 1017.0 |
| 20260506145205 | 25 | 122 | 4.8 | 16.1 | 0.00 | 0.00 | 0.00 | 70 | 1017.0 |
| 20260506145103 | 25 | 151 | 4.8 | 16.1 | 0.00 | 0.00 | 0.00 | 70 | 1017.0 |
| 20260506145007 | 25 | 206 | 3.2 | 16.1 | 0.00 | 0.00 | 0.00 | 71 | 1016.9 |
| 20260506144803 | 24 | 150 | 4.8 | 17.7 | 0.00 | 0.00 | 0.00 | 70 | 1016.9 |
| 20260506144703 | 24 | 180 | 8.0 | 17.7 | 0.00 | 0.00 | 0.00 | 69 | 1016.9 |
| 20260506144603 | 24 | 215 | 6.4 | 17.7 | 0.00 | 0.00 | 0.00 | 69 | 1016.9 |
| 20260506144506 | 24 | 221 | 6.4 | 17.7 | 0.00 | 0.00 | 0.00 | 70 | 1016.9 |
| 20260506144403 | 24 | 210 | 8.0 | 17.7 | 0.00 | 0.00 | 0.00 | 69 | 1016.8 |
| 20260506144304 | 24 | 196 | 9.7 | 17.7 | 0.00 | 0.00 | 0.00 | 69 | 1016.9 |
| 20260506144103 | 24 | 182 | 8.0 | 27.4 | 0.00 | 0.00 | 0.00 | 69 | 1016.9 |
| 20260506144005 | 24 | 157 | 11.3 | 27.4 | 0.00 | 0.00 | 0.00 | 69 | 1016.9 |
| 20260506143904 | 24 | 175 | 9.7 | 27.4 | 0.00 | 0.00 | 0.00 | 69 | 1016.9 |
| 20260506143804 | 24 | 169 | 9.7 | 27.4 | 0.00 | 0.00 | 0.00 | 69 | 1016.9 |
| 20260506143604 | 24 | 161 | 9.7 | 27.4 | 0.00 | 0.00 | 0.00 | 68 | 1016.8 |
| 20260506143505 | 24 | 158 | 9.7 | 27.4 | 0.00 | 0.00 | 0.00 | 68 | 1016.8 |
| 20260506143303 | 24 | 190 | 11.3 | 29.0 | 0.00 | 0.00 | 0.00 | 69 | 1016.7 |
| 20260506143205 | 24 | 205 | 8.0 | 16.1 | 0.00 | 0.00 | 0.00 | 70 | 1016.7 |
| 20260506143104 | 24 | 226 | 6.4 | 16.1 | 0.00 | 0.00 | 0.00 | 70 | 1016.7 |
| 20260506143007 | 24 | 194 | 6.4 | 16.1 | 0.00 | 0.00 | 0.00 | 69 | 1016.7 |
| 20260506142903 | 24 | 200 | 8.0 | 16.1 | 0.00 | 0.00 | 0.00 | 69 | 1016.7 |
| 20260506142804 | 24 | 196 | 9.7 | 19.3 | 0.00 | 0.00 | 0.00 | 68 | 1016.7 |
| 20260506142703 | 24 | 195 | 9.7 | 19.3 | 0.00 | 0.00 | 0.00 | 69 | 1016.7 |
| 20260506142603 | 24 | 157 | 8.0 | 19.3 | 0.00 | 0.00 | 0.00 | 71 | 1016.6 |
| 20260506142506 | 24 | 180 | 8.0 | 22.5 | 0.00 | 0.00 | 0.00 | 70 | 1016.5 |
| 20260506142306 | 23 | 182 | 6.4 | 22.5 | 0.00 | 0.00 | 0.00 | 70 | 1016.5 |
| 20260506142204 | 23 | 119 | 9.7 | 22.5 | 0.00 | 0.00 | 0.00 | 70 | 1016.5 |
| 20260506142103 | 23 | 209 | 12.9 | 22.5 | 0.00 | 0.00 | 0.00 | 70 | 1016.5 |
| 20260506142005 | 23 | 117 | 11.3 | 22.5 | 0.00 | 0.00 | 0.00 | 70 | 1016.6 |
| 20260506141904 | 23 | 200 | 8.0 | 22.5 | 0.00 | 0.00 | 0.00 | 71 | 1016.5 |
| 20260506141803 | 23 | 193 | 11.3 | 22.5 | 0.00 | 0.00 | 0.00 | 72 | 1016.5 |
| 20260506141704 | 23 | 131 | 11.3 | 22.5 | 0.00 | 0.00 | 0.00 | 71 | 1016.6 |
| 20260506141404 | 23 | 129 | 6.4 | 14.5 | 0.00 | 0.00 | 0.00 | 72 | 1016.6 |
| 20260506141303 | 23 | 144 | 6.4 | 14.5 | 0.00 | 0.00 | 0.00 | 71 | 1016.5 |
| 20260506141203 | 23 | 209 | 8.0 | 14.5 | 0.00 | 0.00 | 0.00 | 71 | 1016.6 |
| 20260506141103 | 23 | 240 | 8.0 | 14.5 | 0.00 | 0.00 | 0.00 | 71 | 1016.7 |
| 20260506141006 | 23 | 186 | 6.4 | 14.5 | 0.00 | 0.00 | 0.00 | 72 | 1016.6 |
| 20260506140903 | 23 | 101 | 8.0 | 14.5 | 0.00 | 0.00 | 0.00 | 72 | 1016.6 |
| 20260506140805 | 23 | 165 | 8.0 | 14.5 | 0.00 | 0.00 | 0.00 | 72 | 1016.6 |
| 20260506140704 | 23 | 186 | 6.4 | 14.5 | 0.00 | 0.00 | 0.00 | 72 | 1016.6 |
| 20260506140604 | 23 | 186 | 6.4 | 14.5 | 0.00 | 0.00 | 0.00 | 72 | 1016.6 |
| 20260506140505 | 23 | 173 | 8.0 | 14.5 | 0.00 | 0.00 | 0.00 | 72 | 1016.6 |
| 20260506140403 | 23 | 201 | 8.0 | 14.5 | 0.00 | 0.00 | 0.00 | 72 | 1016.6 |
| 20260506140304 | 23 | 182 | 8.0 | 14.5 | 0.00 | 0.00 | 0.00 | 73 | 1016.6 |
| 20260506140204 | 23 | 175 | 11.3 | 14.5 | 0.00 | 0.00 | 0.00 | 73 | 1016.6 |
| 20260506140104 | 23 | 171 | 9.7 | 17.7 | 0.00 | 0.00 | 0.00 | 73 | 1016.6 |
| 20260506140008 | 23 | 178 | 8.0 | 17.7 | 0.00 | 0.00 | 0.00 | 74 | 1016.6 |
| 20260506135904 | 23 | 166 | 8.0 | 14.5 | 0.00 | 0.00 | 0.00 | 74 | 1016.7 |
| 20260506135803 | 23 | 168 | 8.0 | 14.5 | 0.00 | 0.00 | 0.00 | 73 | 1016.7 |
| 20260506135704 | 23 | 147 | 6.4 | 14.5 | 0.00 | 0.00 | 0.00 | 74 | 1016.7 |
| 20260506135405 | 22 | 191 | 6.4 | 14.5 | 0.00 | 0.00 | 0.00 | 74 | 1016.7 |
| 20260506135306 | 22 | 171 | 8.0 | 16.1 | 0.00 | 0.00 | 0.00 | 74 | 1016.7 |
| 20260506135204 | 22 | 209 | 8.0 | 14.5 | 0.00 | 0.00 | 0.00 | 76 | 1016.7 |
| 20260506135104 | 22 | 197 | 4.8 | 14.5 | 0.00 | 0.00 | 0.00 | 75 | 1016.7 |
| 20260506135006 | 22 | 205 | 4.8 | 14.5 | 0.00 | 0.00 | 0.00 | 75 | 1016.8 |
| 20260506134603 | 22 | 133 | 6.4 | 16.1 | 0.00 | 0.00 | 0.00 | 75 | 1016.6 |
| 20260506134506 | 22 | 227 | 8.0 | 16.1 | 0.00 | 0.00 | 0.00 | 75 | 1016.6 |
| 20260506134304 | 22 | 212 | 6.4 | 16.1 | 0.00 | 0.00 | 0.00 | 75 | 1016.5 |
| 20260506134205 | 22 | 166 | 8.0 | 16.1 | 0.00 | 0.00 | 0.00 | 74 | 1016.5 |
| 20260506134103 | 22 | 213 | 8.0 | 16.1 | 0.00 | 0.00 | 0.00 | 74 | 1016.5 |
| 20260506134006 | 22 | 64 | 9.7 | 17.7 | 0.00 | 0.00 | 0.00 | 74 | 1016.6 |
| 20260506133902 | 22 | 213 | 11.3 | 19.3 | 0.00 | 0.00 | 0.00 | 74 | 1016.6 |
| 20260506133803 | 22 | 181 | 8.0 | 16.1 | 0.00 | 0.00 | 0.00 | 75 | 1016.6 |
| 20260506133704 | 22 | 194 | 6.4 | 16.1 | 0.00 | 0.00 | 0.00 | 75 | 1016.5 |
| 20260506133604 | 22 | 202 | 6.4 | 16.1 | 0.00 | 0.00 | 0.00 | 76 | 1016.5 |
| 20260506133506 | 22 | 182 | 8.0 | 16.1 | 0.00 | 0.00 | 0.00 | 76 | 1016.5 |
| 20260506133403 | 22 | 191 | 8.0 | 16.1 | 0.00 | 0.00 | 0.00 | 76 | 1016.6 |
| 20260506133304 | 22 | 198 | 8.0 | 16.1 | 0.00 | 0.00 | 0.00 | 76 | 1016.6 |
| 20260506133204 | 22 | 178 | 6.4 | 16.1 | 0.00 | 0.00 | 0.00 | 76 | 1016.5 |
| 20260506133104 | 22 | 167 | 4.8 | 25.7 | 0.00 | 0.00 | 0.00 | 76 | 1016.5 |
| 20260506133006 | 22 | 198 | 6.4 | 25.7 | 0.00 | 0.00 | 0.00 | 77 | 1016.5 |
| 20260506132905 | 22 | 192 | 8.0 | 25.7 | 0.00 | 0.00 | 0.00 | 76 | 1016.5 |
| 20260506132803 | 22 | 169 | 8.0 | 25.7 | 0.00 | 0.00 | 0.00 | 76 | 1016.5 |
| 20260506132704 | 22 | 177 | 8.0 | 25.7 | 0.00 | 0.00 | 0.00 | 77 | 1016.5 |
| 20260506132603 | 22 | 152 | 9.7 | 25.7 | 0.00 | 0.00 | 0.00 | 76 | 1016.5 |
| 20260506132506 | 22 | 159 | 9.7 | 25.7 | 0.00 | 0.00 | 0.00 | 76 | 1016.5 |
| 20260506132306 | 22 | 163 | 9.7 | 25.7 | 0.00 | 0.00 | 0.00 | 78 | 1016.5 |
| 20260506132103 | 22 | 178 | 9.7 | 20.9 | 0.00 | 0.00 | 0.00 | 78 | 1016.4 |
| 20260506132006 | 22 | 140 | 11.3 | 20.9 | 0.00 | 0.00 | 0.00 | 77 | 1016.4 |
| 20260506131603 | 22 | 175 | 8.0 | 25.7 | 0.00 | 0.00 | 0.00 | 78 | 1016.4 |
| 20260506131505 | 21 | 211 | 8.0 | 25.7 | 0.00 | 0.00 | 0.00 | 79 | 1016.4 |
| 20260506131404 | 21 | 210 | 8.0 | 25.7 | 0.00 | 0.00 | 0.00 | 79 | 1016.3 |
| 20260506131305 | 21 | 140 | 9.7 | 25.7 | 0.00 | 0.00 | 0.00 | 78 | 1016.3 |
| 20260506131203 | 21 | 168 | 12.9 | 25.7 | 0.00 | 0.00 | 0.00 | 79 | 1016.3 |
| 20260506131103 | 21 | 169 | 11.3 | 24.1 | 0.00 | 0.00 | 0.00 | 82 | 1016.3 |
| 20260506131006 | 21 | 178 | 6.4 | 14.5 | 0.00 | 0.00 | 0.00 | 81 | 1016.3 |
| 20260506130903 | 21 | 165 | 6.4 | 14.5 | 0.00 | 0.00 | 0.00 | 81 | 1016.3 |
| 20260506130804 | 21 | 187 | 8.0 | 14.5 | 0.00 | 0.00 | 0.00 | 82 | 1016.3 |
| 20260506130705 | 21 | 254 | 6.4 | 14.5 | 0.00 | 0.00 | 0.00 | 83 | 1016.3 |
| 20260506130604 | 21 | 225 | 6.4 | 14.5 | 0.00 | 0.00 | 0.00 | 82 | 1016.3 |
| 20260506130508 | 21 | 165 | 8.0 | 14.5 | 0.00 | 0.00 | 0.00 | 83 | 1016.3 |
| 20260506130404 | 21 | 144 | 4.8 | 14.5 | 0.00 | 0.00 | 0.00 | 83 | 1016.2 |
| 20260506130204 | 20 | 166 | 8.0 | 14.5 | 0.00 | 0.00 | 0.00 | 84 | 1016.2 |
| 20260506130104 | 20 | 213 | 8.0 | 14.5 | 0.00 | 0.00 | 0.00 | 84 | 1016.2 |
| 20260506130007 | 20 | 187 | 8.0 | 12.9 | 0.00 | 0.00 | 0.00 | 84 | 1016.2 |
| 20260506125904 | 20 | 211 | 8.0 | 12.9 | 0.00 | 0.00 | 0.00 | 85 | 1016.3 |
| 20260506125803 | 20 | 175 | 6.4 | 12.9 | 0.00 | 0.00 | 0.00 | 85 | 1016.3 |
| 20260506125704 | 20 | 215 | 6.4 | 12.9 | 0.00 | 0.00 | 0.00 | 87 | 1016.3 |
| 20260506125603 | 20 | 164 | 4.8 | 11.3 | 0.00 | 0.00 | 0.00 | 87 | 1016.3 |
| 20260506125506 | 20 | 157 | 3.2 | 12.9 | 0.00 | 0.00 | 0.00 | 87 | 1016.3 |
| 20260506125403 | 20 | 200 | 1.6 | 14.5 | 0.00 | 0.00 | 0.00 | 87 | 1016.3 |
| 20260506125104 | 20 | 197 | 6.4 | 14.5 | 0.00 | 0.00 | 0.00 | 88 | 1016.2 |
| 20260506125005 | 20 | 202 | 6.4 | 14.5 | 0.00 | 0.00 | 0.00 | 87 | 1016.2 |
| 20260506124804 | 20 | 186 | 6.4 | 14.5 | 0.00 | 0.00 | 0.00 | 88 | 1016.2 |
| 20260506124703 | 20 | 181 | 8.0 | 14.5 | 0.00 | 0.00 | 0.00 | 88 | 1016.3 |
| 20260506124603 | 19 | 211 | 8.0 | 14.5 | 0.00 | 0.00 | 0.00 | 88 | 1016.3 |
| 20260506124506 | 19 | 217 | 6.4 | 9.7 | 0.00 | 0.00 | 0.00 | 89 | 1016.3 |
| 20260506124403 | 19 | 198 | 4.8 | 11.3 | 0.00 | 0.00 | 0.00 | 89 | 1016.3 |
| 20260506124303 | 19 | 123 | 4.8 | 11.3 | 0.00 | 0.00 | 0.00 | 89 | 1016.4 |
| 20260506124203 | 19 | 224 | 4.8 | 11.3 | 0.00 | 0.00 | 0.00 | 90 | 1016.3 |
| 20260506124103 | 19 | 192 | 4.8 | 11.3 | 0.00 | 0.00 | 0.00 | 90 | 1016.2 |
| 20260506124005 | 19 | 141 | 4.8 | 11.3 | 0.00 | 0.00 | 0.00 | 90 | 1016.3 |
| 20260506123903 | 19 | 177 | 3.2 | 11.3 | 0.00 | 0.00 | 0.00 | 90 | 1016.3 |
| 20260506123804 | 19 | 173 | 4.8 | 11.3 | 0.00 | 0.00 | 0.00 | 90 | 1016.3 |
| 20260506123703 | 18 | 166 | 4.8 | 11.3 | 0.00 | 0.00 | 0.00 | 90 | 1016.3 |
| 20260506123604 | 18 | 112 | 4.8 | 8.0 | 0.00 | 0.00 | 0.00 | 90 | 1016.3 |
| 20260506123505 | 18 | 216 | 4.8 | 8.0 | 0.00 | 0.00 | 0.00 | 90 | 1016.3 |
| 20260506123404 | 18 | 175 | 3.2 | 9.7 | 0.00 | 0.00 | 0.00 | 91 | 1016.2 |
| 20260506123304 | 18 | 177 | 3.2 | 9.7 | 0.00 | 0.00 | 0.00 | 91 | 1016.3 |
| 20260506123103 | 18 | 136 | 4.8 | 9.7 | 0.00 | 0.00 | 0.00 | 91 | 1016.2 |
| 20260506123006 | 18 | 154 | 4.8 | 9.7 | 0.00 | 0.00 | 0.00 | 91 | 1016.3 |
| 20260506122804 | 18 | 197 | 4.8 | 8.0 | 0.00 | 0.00 | 0.00 | 92 | 1016.3 |
| 20260506122703 | 18 | 147 | 3.2 | 8.0 | 0.00 | 0.00 | 0.00 | 92 | 1016.2 |
| 20260506122603 | 18 | 163 | 3.2 | 8.0 | 0.00 | 0.00 | 0.00 | 92 | 1016.3 |
| 20260506122506 | 18 | 173 | 3.2 | 8.0 | 0.00 | 0.00 | 0.00 | 92 | 1016.2 |
| 20260506122403 | 18 | 166 | 3.2 | 8.0 | 0.00 | 0.00 | 0.00 | 92 | 1016.2 |
| 20260506122306 | 18 | 180 | 4.8 | 8.0 | 0.00 | 0.00 | 0.00 | 92 | 1016.2 |
| 20260506122203 | 18 | 165 | 4.8 | 8.0 | 0.00 | 0.00 | 0.00 | 92 | 1016.2 |
| 20260506122103 | 18 | 169 | 4.8 | 8.0 | 0.00 | 0.00 | 0.00 | 92 | 1016.1 |
| 20260506122005 | 18 | 181 | 3.2 | 8.0 | 0.00 | 0.00 | 0.00 | 92 | 1016.2 |
| 20260506121903 | 18 | 208 | 4.8 | 9.7 | 0.00 | 0.00 | 0.00 | 93 | 1016.2 |
| 20260506121804 | 18 | 180 | 3.2 | 11.3 | 0.00 | 0.00 | 0.00 | 93 | 1016.2 |
| 20260506121703 | 17 | 194 | 3.2 | 11.3 | 0.00 | 0.00 | 0.00 | 93 | 1016.2 |
| 20260506121603 | 17 | 181 | 4.8 | 11.3 | 0.00 | 0.00 | 0.00 | 93 | 1016.2 |
| 20260506121505 | 17 | 209 | 4.8 | 11.3 | 0.00 | 0.00 | 0.00 | 93 | 1016.2 |
| 20260506121404 | 17 | 209 | 4.8 | 11.3 | 0.00 | 0.00 | 0.00 | 93 | 1016.2 |
| 20260506121303 | 17 | 159 | 4.8 | 11.3 | 0.00 | 0.00 | 0.00 | 93 | 1016.2 |
| 20260506121205 | 17 | 165 | 6.4 | 11.3 | 0.00 | 0.00 | 0.00 | 93 | 1016.2 |
| 20260506120903 | 17 | 223 | 3.2 | 8.0 | 0.00 | 0.00 | 0.00 | 94 | 1016.2 |
| 20260506120804 | 17 | 189 | 3.2 | 6.4 | 0.00 | 0.00 | 0.00 | 94 | 1016.1 |
| 20260506120704 | 17 | 147 | 3.2 | 6.4 | 0.00 | 0.00 | 0.00 | 94 | 1016.1 |
| 20260506120603 | 17 | 200 | 3.2 | 8.0 | 0.00 | 0.00 | 0.00 | 94 | 1016.2 |
| 20260506120505 | 17 | 157 | 3.2 | 6.4 | 0.00 | 0.00 | 0.00 | 94 | 1016.1 |
| 20260506120404 | 17 | 198 | 3.2 | 6.4 | 0.00 | 0.00 | 0.00 | 94 | 1016.1 |
| 20260506120303 | 17 | 186 | 3.2 | 6.4 | 0.00 | 0.00 | 0.00 | 94 | 1016.2 |
| 20260506120203 | 17 | 177 | 3.2 | 8.0 | 0.00 | 0.00 | 0.00 | 94 | 1016.2 |
| 20260506120104 | 17 | 211 | 3.2 | 8.0 | 0.00 | 0.00 | 0.00 | 95 | 1016.2 |
| 20260506120006 | 17 | 207 | 3.2 | 8.0 | 0.00 | 0.00 | 0.00 | 94 | 1016.3 |
| 20260506115903 | 17 | 160 | 3.2 | 8.0 | 0.00 | 0.00 | 0.00 | 95 | 1016.2 |
| 20260506115804 | 16 | 170 | 1.6 | 8.0 | 0.00 | 0.00 | 0.00 | 95 | 1016.2 |
| 20260506115704 | 16 | 168 | 1.6 | 8.0 | 0.00 | 0.00 | 0.00 | 95 | 1016.3 |
| 20260506115603 | 16 | 160 | 1.6 | 8.0 | 0.00 | 0.00 | 0.00 | 95 | 1016.2 |
| 20260506115506 | 16 | 160 | 1.6 | 8.0 | 0.00 | 0.00 | 0.00 | 95 | 1016.2 |
| 20260506115403 | 16 | 173 | 3.2 | 8.0 | 0.00 | 0.00 | 0.00 | 95 | 1016.2 |
| 20260506115306 | 16 | 207 | 3.2 | 8.0 | 0.00 | 0.00 | 0.00 | 95 | 1016.2 |
| 20260506115203 | 16 | 167 | 3.2 | 8.0 | 0.00 | 0.00 | 0.00 | 95 | 1016.2 |
| 20260506115103 | 16 | 161 | 3.2 | 8.0 | 0.00 | 0.00 | 0.00 | 95 | 1016.2 |
| 20260506115006 | 16 | 167 | 3.2 | 8.0 | 0.00 | 0.00 | 0.00 | 95 | 1016.1 |
| 20260506114904 | 16 | 210 | 1.6 | 8.0 | 0.00 | 0.00 | 0.00 | 95 | 1016.2 |
| 20260506114803 | 16 | 170 | 1.6 | 4.8 | 0.00 | 0.00 | 0.00 | 95 | 1016.2 |
| 20260506114703 | 16 | 184 | 3.2 | 4.8 | 0.00 | 0.00 | 0.00 | 95 | 1016.1 |
| 20260506114604 | 16 | 173 | 3.2 | 4.8 | 0.00 | 0.00 | 0.00 | 95 | 1016.1 |
| 20260506114506 | 16 | 171 | 1.6 | 4.8 | 0.00 | 0.00 | 0.00 | 95 | 1016.1 |
| 20260506114403 | 16 | 215 | 1.6 | 4.8 | 0.00 | 0.00 | 0.00 | 95 | 1016.1 |
| 20260506114303 | 16 | 223 | 3.2 | 4.8 | 0.00 | 0.00 | 0.00 | 95 | 1016.1 |
| 20260506114204 | 16 | 180 | 1.6 | 4.8 | 0.00 | 0.00 | 0.00 | 95 | 1016.1 |
| 20260506114103 | 16 | 206 | 1.6 | 6.4 | 0.00 | 0.00 | 0.00 | 95 | 1016.1 |
| 20260506114006 | 16 | 166 | 3.2 | 6.4 | 0.00 | 0.00 | 0.00 | 96 | 1016.1 |
| 20260506113904 | 16 | 169 | 1.6 | 6.4 | 0.00 | 0.00 | 0.00 | 96 | 1016.1 |
| 20260506113803 | 16 | 190 | 1.6 | 6.4 | 0.00 | 0.00 | 0.00 | 96 | 1016.0 |
| 20260506113703 | 16 | 198 | 1.6 | 6.4 | 0.00 | 0.00 | 0.00 | 96 | 1016.1 |
| 20260506113403 | 16 | 200 | 3.2 | 6.4 | 0.00 | 0.00 | 0.00 | 95 | 1016.0 |
| 20260506113303 | 16 | 200 | 3.2 | 6.4 | 0.00 | 0.00 | 0.00 | 95 | 1016.0 |
| 20260506113204 | 15 | 207 | 3.2 | 6.4 | 0.00 | 0.00 | 0.00 | 96 | 1016.1 |
| 20260506112904 | 15 | 182 | 1.6 | 4.8 | 0.00 | 0.00 | 0.00 | 96 | 1016.0 |
| 20260506112803 | 15 | 181 | 1.6 | 3.2 | 0.00 | 0.00 | 0.00 | 96 | 1016.1 |
| 20260506112703 | 15 | 181 | 0.0 | 3.2 | 0.00 | 0.00 | 0.00 | 96 | 1016.1 |
| 20260506112603 | 15 | 181 | 1.6 | 3.2 | 0.00 | 0.00 | 0.00 | 96 | 1016.1 |
| 20260506112505 | 15 | 181 | 1.6 | 3.2 | 0.00 | 0.00 | 0.00 | 95 | 1016.0 |
| 20260506112404 | 15 | 181 | 1.6 | 3.2 | 0.00 | 0.00 | 0.00 | 95 | 1016.0 |
| 20260506112306 | 15 | 181 | 0.0 | 3.2 | 0.00 | 0.00 | 0.00 | 95 | 1016.0 |
| 20260506112103 | 15 | 181 | 1.6 | 3.2 | 0.00 | 0.00 | 0.00 | 95 | 1015.9 |
| 20260506112006 | 15 | 181 | 1.6 | 4.8 | 0.00 | 0.00 | 0.00 | 95 | 1015.9 |
| 20260506111903 | 15 | 167 | 1.6 | 4.8 | 0.00 | 0.00 | 0.00 | 95 | 1015.9 |
| 20260506111806 | 15 | 167 | 1.6 | 4.8 | 0.00 | 0.00 | 0.00 | 95 | 1015.9 |
| 20260506111704 | 15 | 167 | 1.6 | 4.8 | 0.00 | 0.00 | 0.00 | 96 | 1015.8 |
| 20260506111604 | 15 | 167 | 1.6 | 4.8 | 0.00 | 0.00 | 0.00 | 96 | 1015.8 |
| 20260506111506 | 15 | 167 | 0.0 | 4.8 | 0.00 | 0.00 | 0.00 | 96 | 1015.8 |
| 20260506111404 | 15 | 167 | 1.6 | 4.8 | 0.00 | 0.00 | 0.00 | 96 | 1015.9 |
| 20260506111303 | 15 | 167 | 1.6 | 4.8 | 0.00 | 0.00 | 0.00 | 96 | 1015.9 |
| 20260506111204 | 15 | 167 | 1.6 | 4.8 | 0.00 | 0.00 | 0.00 | 96 | 1016.0 |
| 20260506110903 | 15 | 190 | 1.6 | 4.8 | 0.00 | 0.00 | 0.00 | 96 | 1015.9 |
| 20260506110804 | 15 | 171 | 1.6 | 4.8 | 0.00 | 0.00 | 0.00 | 96 | 1015.9 |
| 20260506110704 | 15 | 184 | 1.6 | 4.8 | 0.00 | 0.00 | 0.00 | 96 | 1015.9 |
| 20260506110603 | 15 | 184 | 1.6 | 6.4 | 0.00 | 0.00 | 0.00 | 96 | 1015.9 |
| 20260506110505 | 15 | 184 | 1.6 | 6.4 | 0.00 | 0.00 | 0.00 | 96 | 1016.0 |
| 20260506110404 | 15 | 205 | 1.6 | 6.4 | 0.00 | 0.00 | 0.00 | 96 | 1015.9 |
| 20260506110303 | 15 | 183 | 3.2 | 6.4 | 0.00 | 0.00 | 0.00 | 96 | 1015.9 |
| 20260506110205 | 15 | 189 | 3.2 | 6.4 | 0.00 | 0.00 | 0.00 | 96 | 1015.9 |
| 20260506110104 | 15 | 199 | 1.6 | 6.4 | 0.00 | 0.00 | 0.00 | 96 | 1015.9 |
| 20260506110005 | 15 | 219 | 3.2 | 6.4 | 0.00 | 0.00 | 0.00 | 96 | 1015.9 |
| 20260506105802 | 15 | 201 | 3.2 | 6.4 | 0.00 | 0.00 | 0.00 | 96 | 1016.0 |
| 20260506105702 | 15 | 208 | 1.6 | 4.8 | 0.00 | 0.00 | 0.00 | 96 | 1015.8 |
| 20260506105603 | 15 | 207 | 3.2 | 4.8 | 0.00 | 0.00 | 0.00 | 96 | 1015.9 |
| 20260506105506 | 15 | 191 | 1.6 | 4.8 | 0.00 | 0.00 | 0.00 | 96 | 1015.9 |
| 20260506105403 | 15 | 223 | 3.2 | 4.8 | 0.00 | 0.00 | 0.00 | 96 | 1015.9 |
| 20260506105305 | 15 | 182 | 3.2 | 4.8 | 0.00 | 0.00 | 0.00 | 96 | 1015.9 |
| 20260506105203 | 15 | 188 | 1.6 | 4.8 | 0.00 | 0.00 | 0.00 | 96 | 1015.8 |
| 20260506104902 | 15 | 196 | 1.6 | 4.8 | 0.00 | 0.00 | 0.00 | 96 | 1015.9 |
| 20260506104801 | 15 | 204 | 1.6 | 4.8 | 0.00 | 0.00 | 0.00 | 96 | 1015.8 |
| 20260506104702 | 14 | 186 | 1.6 | 4.8 | 0.00 | 0.00 | 0.00 | 96 | 1015.8 |
| 20260506104302 | 14 | 196 | 0.0 | 0.0 | 0.00 | 0.00 | 0.00 | 96 | 1015.8 |
| 20260506104202 | 14 | 209 | 0.0 | 0.0 | 0.00 | 0.00 | 0.00 | 96 | 1015.9 |
| 20260506104102 | 14 | 223 | 0.0 | 0.0 | 0.00 | 0.00 | 0.00 | 96 | 1015.8 |
| 20260506104006 | 14 | 223 | 0.0 | 0.0 | 0.00 | 0.00 | 0.00 | 96 | 1015.8 |
| 20260506103902 | 14 | 200 | 0.0 | 0.0 | 0.00 | 0.00 | 0.00 | 96 | 1015.8 |
| 20260506103803 | 14 | 200 | 0.0 | 0.0 | 0.00 | 0.00 | 0.00 | 96 | 1015.7 |
| 20260506103703 | 14 | 200 | 0.0 | 0.0 | 0.00 | 0.00 | 0.00 | 96 | 1015.7 |
| 20260506103603 | 14 | 200 | 0.0 | 0.0 | 0.00 | 0.00 | 0.00 | 95 | 1015.7 |
| 20260506103505 | 14 | 200 | 0.0 | 0.0 | 0.00 | 0.00 | 0.00 | 95 | 1015.8 |
| 20260506103402 | 14 | 184 | 0.0 | 0.0 | 0.00 | 0.00 | 0.00 | 95 | 1015.9 |
| 20260506103202 | 14 | 190 | 0.0 | 0.0 | 0.00 | 0.00 | 0.00 | 95 | 1015.9 |
| 20260506103103 | 14 | 190 | 0.0 | 0.0 | 0.00 | 0.00 | 0.00 | 95 | 1015.9 |
| 20260506103007 | 14 | 190 | 0.0 | 0.0 | 0.00 | 0.00 | 0.00 | 95 | 1015.9 |
| 20260506102902 | 14 | 190 | 0.0 | 0.0 | 0.00 | 0.00 | 0.00 | 95 | 1016.0 |
| 20260506102802 | 14 | 175 | 0.0 | 0.0 | 0.00 | 0.00 | 0.00 | 95 | 1015.9 |
| 20260506102703 | 14 | 209 | 0.0 | 0.0 | 0.00 | 0.00 | 0.00 | 95 | 1015.9 |
| 20260506102602 | 14 | 209 | 0.0 | 0.0 | 0.00 | 0.00 | 0.00 | 95 | 1015.9 |
| 20260506102505 | 14 | 209 | 0.0 | 0.0 | 0.00 | 0.00 | 0.00 | 95 | 1015.8 |
| 20260506102402 | 14 | 209 | 0.0 | 0.0 | 0.00 | 0.00 | 0.00 | 95 | 1015.8 |
| 20260506102305 | 14 | 209 | 0.0 | 0.0 | 0.00 | 0.00 | 0.00 | 95 | 1015.7 |
| 20260506102103 | 14 | 209 | 0.0 | 0.0 | 0.00 | 0.00 | 0.00 | 95 | 1015.7 |
| 20260506102006 | 14 | 209 | 0.0 | 0.0 | 0.00 | 0.00 | 0.00 | 95 | 1015.7 |
| 20260506101902 | 14 | 209 | 0.0 | 0.0 | 0.00 | 0.00 | 0.00 | 95 | 1015.8 |
| 20260506101802 | 14 | 209 | 0.0 | 0.0 | 0.00 | 0.00 | 0.00 | 95 | 1015.8 |
| 20260506101702 | 14 | 209 | 0.0 | 0.0 | 0.00 | 0.00 | 0.00 | 95 | 1015.8 |
| 20260506101602 | 14 | 209 | 0.0 | 0.0 | 0.00 | 0.00 | 0.00 | 95 | 1015.7 |
| 20260506101506 | 14 | 209 | 0.0 | 0.0 | 0.00 | 0.00 | 0.00 | 95 | 1015.7 |
| 20260506101403 | 14 | 209 | 0.0 | 0.0 | 0.00 | 0.00 | 0.00 | 95 | 1015.6 |
| 20260506101302 | 14 | 209 | 0.0 | 0.0 | 0.00 | 0.00 | 0.00 | 95 | 1015.7 |
| 20260506101202 | 13 | 209 | 0.0 | 0.0 | 0.00 | 0.00 | 0.00 | 95 | 1015.7 |
| 20260506101102 | 13 | 209 | 0.0 | 0.0 | 0.00 | 0.00 | 0.00 | 95 | 1015.7 |
| 20260506101006 | 13 | 209 | 0.0 | 0.0 | 0.00 | 0.00 | 0.00 | 95 | 1015.7 |
| 20260506100802 | 13 | 209 | 0.0 | 0.0 | 0.00 | 0.00 | 0.00 | 95 | 1015.7 |
| 20260506100703 | 13 | 209 | 0.0 | 0.0 | 0.00 | 0.00 | 0.00 | 95 | 1015.7 |
| 20260506100603 | 13 | 209 | 0.0 | 0.0 | 0.00 | 0.00 | 0.00 | 95 | 1015.7 |
| 20260506100505 | 13 | 209 | 0.0 | 0.0 | 0.00 | 0.00 | 0.00 | 95 | 1015.6 |
| 20260506100402 | 13 | 209 | 0.0 | 0.0 | 0.00 | 0.00 | 0.00 | 95 | 1015.7 |
| 20260506100303 | 13 | 209 | 0.0 | 0.0 | 0.00 | 0.00 | 0.00 | 95 | 1015.7 |
| 20260506100203 | 13 | 209 | 0.0 | 0.0 | 0.00 | 0.00 | 0.00 | 95 | 1015.6 |
| 20260506100006 | 13 | 209 | 0.0 | 0.0 | 0.00 | 0.00 | 0.00 | 95 | 1015.6 |
| 20260506095902 | 13 | 209 | 0.0 | 0.0 | 0.00 | 0.00 | 0.00 | 95 | 1015.6 |
| 20260506095803 | 13 | 209 | 0.0 | 0.0 | 0.00 | 0.00 | 0.00 | 95 | 1015.5 |
| 20260506095702 | 13 | 209 | 0.0 | 0.0 | 0.00 | 0.00 | 0.00 | 95 | 1015.5 |
| 20260506095603 | 13 | 209 | 0.0 | 0.0 | 0.00 | 0.00 | 0.00 | 95 | 1015.5 |
| 20260506095505 | 13 | 209 | 0.0 | 0.0 | 0.00 | 0.00 | 0.00 | 94 | 1015.6 |
| 20260506095404 | 13 | 209 | 0.0 | 0.0 | 0.00 | 0.00 | 0.00 | 95 | 1015.6 |
| 20260506095305 | 13 | 209 | 0.0 | 0.0 | 0.00 | 0.00 | 0.00 | 95 | 1015.6 |
| 20260506095203 | 13 | 209 | 0.0 | 0.0 | 0.00 | 0.00 | 0.00 | 94 | 1015.6 |
| 20260506094902 | 13 | 209 | 0.0 | 0.0 | 0.00 | 0.00 | 0.00 | 94 | 1015.7 |
| 20260506094803 | 13 | 209 | 0.0 | 0.0 | 0.00 | 0.00 | 0.00 | 95 | 1015.6 |
| 20260506094702 | 13 | 209 | 0.0 | 0.0 | 0.00 | 0.00 | 0.00 | 95 | 1015.7 |
| 20260506094603 | 13 | 209 | 0.0 | 0.0 | 0.00 | 0.00 | 0.00 | 94 | 1015.6 |
| 20260506094506 | 13 | 209 | 0.0 | 0.0 | 0.00 | 0.00 | 0.00 | 94 | 1015.6 |
| 20260506094402 | 14 | 209 | 0.0 | 0.0 | 0.00 | 0.00 | 0.00 | 94 | 1015.6 |
| 20260506094302 | 14 | 209 | 0.0 | 0.0 | 0.00 | 0.00 | 0.00 | 94 | 1015.7 |
| 20260506094203 | 14 | 209 | 0.0 | 0.0 | 0.00 | 0.00 | 0.00 | 94 | 1015.8 |
| 20260506094102 | 14 | 209 | 0.0 | 0.0 | 0.00 | 0.00 | 0.00 | 94 | 1015.6 |
| 20260506094005 | 14 | 209 | 0.0 | 0.0 | 0.00 | 0.00 | 0.00 | 94 | 1015.7 |
| 20260506093902 | 14 | 209 | 0.0 | 0.0 | 0.00 | 0.00 | 0.00 | 94 | 1015.6 |
| 20260506093802 | 14 | 209 | 0.0 | 0.0 | 0.00 | 0.00 | 0.00 | 94 | 1015.6 |
| 20260506093703 | 14 | 209 | 0.0 | 0.0 | 0.00 | 0.00 | 0.00 | 94 | 1015.6 |
| 20260506093102 | 14 | 209 | 0.0 | 0.0 | 0.00 | 0.00 | 0.00 | 94 | 1015.7 |
| 20260506093004 | 14 | 209 | 0.0 | 0.0 | 0.00 | 0.00 | 0.00 | 94 | 1015.7 |
| 20260506092903 | 14 | 209 | 0.0 | 0.0 | 0.00 | 0.00 | 0.00 | 94 | 1015.7 |
| 20260506092802 | 14 | 209 | 0.0 | 0.0 | 0.00 | 0.00 | 0.00 | 94 | 1015.7 |
| 20260506092703 | 14 | 209 | 0.0 | 0.0 | 0.00 | 0.00 | 0.00 | 94 | 1015.8 |
| 20260506092602 | 14 | 209 | 0.0 | 0.0 | 0.00 | 0.00 | 0.00 | 94 | 1015.7 |
| 20260506092506 | 14 | 209 | 0.0 | 0.0 | 0.00 | 0.00 | 0.00 | 94 | 1015.7 |
| 20260506092403 | 14 | 209 | 0.0 | 0.0 | 0.00 | 0.00 | 0.00 | 94 | 1015.7 |
| 20260506092202 | 14 | 209 | 0.0 | 0.0 | 0.00 | 0.00 | 0.00 | 94 | 1015.6 |
| 20260506092103 | 14 | 209 | 0.0 | 0.0 | 0.00 | 0.00 | 0.00 | 94 | 1015.7 |
| 20260506092006 | 14 | 209 | 0.0 | 0.0 | 0.00 | 0.00 | 0.00 | 94 | 1015.6 |
| 20260506091902 | 14 | 209 | 0.0 | 0.0 | 0.00 | 0.00 | 0.00 | 94 | 1015.7 |
| 20260506091803 | 14 | 209 | 0.0 | 0.0 | 0.00 | 0.00 | 0.00 | 94 | 1015.7 |
| 20260506091702 | 14 | 209 | 0.0 | 0.0 | 0.00 | 0.00 | 0.00 | 94 | 1015.6 |
| 20260506091403 | 14 | 209 | 0.0 | 0.0 | 0.00 | 0.00 | 0.00 | 94 | 1015.6 |
| 20260506091203 | 14 | 209 | 0.0 | 0.0 | 0.00 | 0.00 | 0.00 | 94 | 1015.7 |
| 20260506091102 | 14 | 209 | 0.0 | 0.0 | 0.00 | 0.00 | 0.00 | 94 | 1015.7 |
| 20260506091005 | 14 | 209 | 0.0 | 0.0 | 0.00 | 0.00 | 0.00 | 94 | 1015.6 |
| 20260506090902 | 14 | 209 | 0.0 | 0.0 | 0.00 | 0.00 | 0.00 | 94 | 1015.6 |
| 20260506090802 | 14 | 209 | 0.0 | 0.0 | 0.00 | 0.00 | 0.00 | 94 | 1015.7 |
| 20260506090603 | 14 | 209 | 0.0 | 0.0 | 0.00 | 0.00 | 0.00 | 95 | 1015.7 |
| 20260506090506 | 14 | 209 | 0.0 | 0.0 | 0.00 | 0.00 | 0.00 | 95 | 1015.8 |
| 20260506090403 | 14 | 209 | 0.0 | 0.0 | 0.00 | 0.00 | 0.00 | 95 | 1015.7 |
| 20260506090302 | 14 | 209 | 0.0 | 0.0 | 0.00 | 0.00 | 0.00 | 95 | 1015.8 |
| 20260506090203 | 14 | 218 | 0.0 | 0.0 | 0.00 | 0.00 | 0.00 | 95 | 1015.7 |
| 20260506090006 | 14 | 218 | 0.0 | 0.0 | 0.00 | 0.00 | 0.00 | 95 | 1015.6 |
| 20260506085902 | 14 | 202 | 0.0 | 0.0 | 0.00 | 0.00 | 0.00 | 95 | 1015.6 |
| 20260506085803 | 14 | 186 | 0.0 | 0.0 | 0.00 | 0.00 | 0.00 | 95 | 1015.6 |
| 20260506085702 | 14 | 209 | 0.0 | 0.0 | 0.00 | 0.00 | 0.00 | 95 | 1015.5 |
| 20260506085602 | 14 | 188 | 0.0 | 0.0 | 0.00 | 0.00 | 0.00 | 95 | 1015.7 |
| 20260506085505 | 14 | 177 | 0.0 | 0.0 | 0.00 | 0.00 | 0.00 | 94 | 1015.6 |
| 20260506085403 | 14 | 193 | 0.0 | 0.0 | 0.00 | 0.00 | 0.00 | 94 | 1015.7 |
| 20260506085305 | 14 | 179 | 0.0 | 0.0 | 0.00 | 0.00 | 0.00 | 94 | 1015.6 |
| 20260506085203 | 14 | 204 | 0.0 | 0.0 | 0.00 | 0.00 | 0.00 | 94 | 1015.7 |
| 20260506085102 | 14 | 190 | 0.0 | 0.0 | 0.00 | 0.00 | 0.00 | 94 | 1015.7 |
| 20260506085005 | 14 | 202 | 0.0 | 0.0 | 0.00 | 0.00 | 0.00 | 94 | 1015.7 |
| 20260506084902 | 14 | 201 | 0.0 | 0.0 | 0.00 | 0.00 | 0.00 | 94 | 1015.8 |
| 20260506084801 | 14 | 201 | 0.0 | 0.0 | 0.00 | 0.00 | 0.00 | 94 | 1015.8 |
| 20260506084702 | 14 | 201 | 0.0 | 0.0 | 0.00 | 0.00 | 0.00 | 94 | 1015.8 |
| 20260506084602 | 14 | 201 | 0.0 | 0.0 | 0.00 | 0.00 | 0.00 | 94 | 1015.8 |
| 20260506084505 | 14 | 201 | 0.0 | 0.0 | 0.00 | 0.00 | 0.00 | 94 | 1015.9 |
| 20260506084402 | 14 | 201 | 0.0 | 0.0 | 0.00 | 0.00 | 0.00 | 94 | 1015.9 |
| 20260506084102 | 14 | 201 | 0.0 | 0.0 | 0.00 | 0.00 | 0.00 | 94 | 1016.1 |
| 20260506084005 | 14 | 201 | 0.0 | 0.0 | 0.00 | 0.00 | 0.00 | 94 | 1016.1 |
| 20260506083903 | 14 | 201 | 0.0 | 0.0 | 0.00 | 0.00 | 0.00 | 94 | 1016.2 |
| 20260506083802 | 14 | 201 | 0.0 | 0.0 | 0.00 | 0.00 | 0.00 | 94 | 1016.2 |
| 20260506083702 | 14 | 201 | 0.0 | 0.0 | 0.00 | 0.00 | 0.00 | 94 | 1016.2 |
| 20260506083603 | 14 | 201 | 0.0 | 0.0 | 0.00 | 0.00 | 0.00 | 94 | 1016.2 |
| 20260506083505 | 14 | 201 | 0.0 | 0.0 | 0.00 | 0.00 | 0.00 | 94 | 1016.1 |
| 20260506083402 | 14 | 201 | 0.0 | 0.0 | 0.00 | 0.00 | 0.00 | 94 | 1016.1 |
| 20260506083303 | 14 | 201 | 0.0 | 0.0 | 0.00 | 0.00 | 0.00 | 94 | 1016.1 |
| 20260506082802 | 14 | 202 | 0.0 | 0.0 | 0.00 | 0.00 | 0.00 | 94 | 1016.0 |
| 20260506082703 | 14 | 202 | 0.0 | 0.0 | 0.00 | 0.00 | 0.00 | 94 | 1016.1 |
| 20260506082602 | 14 | 202 | 0.0 | 0.0 | 0.00 | 0.00 | 0.00 | 94 | 1016.0 |
| 20260506082505 | 14 | 202 | 0.0 | 0.0 | 0.00 | 0.00 | 0.00 | 94 | 1016.1 |
| 20260506082202 | 14 | 183 | 0.0 | 0.0 | 0.00 | 0.00 | 0.00 | 94 | 1015.9 |
| 20260506082102 | 14 | 183 | 0.0 | 0.0 | 0.00 | 0.00 | 0.00 | 94 | 1015.9 |
| 20260506082005 | 14 | 183 | 0.0 | 0.0 | 0.00 | 0.00 | 0.00 | 94 | 1015.8 |
| 20260506081902 | 14 | 183 | 0.0 | 0.0 | 0.00 | 0.00 | 0.00 | 94 | 1015.8 |
| 20260506081803 | 14 | 183 | 0.0 | 0.0 | 0.00 | 0.00 | 0.00 | 94 | 1015.9 |
| 20260506081702 | 14 | 183 | 0.0 | 0.0 | 0.00 | 0.00 | 0.00 | 94 | 1015.8 |
| 20260506081603 | 14 | 183 | 0.0 | 0.0 | 0.00 | 0.00 | 0.00 | 94 | 1015.9 |
| 20260506081506 | 14 | 183 | 0.0 | 0.0 | 0.00 | 0.00 | 0.00 | 94 | 1015.8 |
| 20260506081402 | 14 | 183 | 0.0 | 0.0 | 0.00 | 0.00 | 0.00 | 94 | 1016.0 |
| 20260506081304 | 14 | 183 | 0.0 | 1.6 | 0.00 | 0.00 | 0.00 | 94 | 1015.9 |
| 20260506081203 | 14 | 183 | 0.0 | 1.6 | 0.00 | 0.00 | 0.00 | 94 | 1015.9 |
| 20260506081102 | 14 | 183 | 0.0 | 3.2 | 0.00 | 0.00 | 0.00 | 94 | 1015.9 |
| 20260506081006 | 14 | 183 | 0.0 | 3.2 | 0.00 | 0.00 | 0.00 | 94 | 1015.8 |
| 20260506080902 | 14 | 183 | 0.0 | 3.2 | 0.00 | 0.00 | 0.00 | 94 | 1015.8 |
| 20260506080802 | 14 | 183 | 0.0 | 3.2 | 0.00 | 0.00 | 0.00 | 94 | 1015.8 |
| 20260506080702 | 14 | 183 | 0.0 | 3.2 | 0.00 | 0.00 | 0.00 | 94 | 1015.7 |
| 20260506080602 | 14 | 183 | 0.0 | 3.2 | 0.00 | 0.00 | 0.00 | 94 | 1015.7 |
| 20260506080504 | 14 | 183 | 0.0 | 3.2 | 0.00 | 0.00 | 0.00 | 94 | 1015.8 |
| 20260506080402 | 14 | 183 | 1.6 | 3.2 | 0.00 | 0.00 | 0.00 | 94 | 1015.8 |
| 20260506080302 | 14 | 183 | 1.6 | 3.2 | 0.00 | 0.00 | 0.00 | 94 | 1015.8 |
| 20260506080202 | 14 | 183 | 1.6 | 3.2 | 0.00 | 0.00 | 0.00 | 94 | 1015.7 |
| 20260506073505 | 14 | 201 | 0.0 | 0.0 | 0.00 | 0.00 | 0.00 | 94 | 1015.5 |
| 20260506073302 | 14 | 209 | 0.0 | 0.0 | 0.00 | 0.00 | 0.00 | 94 | 1015.5 |
| 20260506073203 | 14 | 209 | 0.0 | 0.0 | 0.00 | 0.00 | 0.00 | 94 | 1015.5 |
| 20260506073103 | 14 | 209 | 0.0 | 0.0 | 0.00 | 0.00 | 0.00 | 94 | 1015.5 |
| 20260506073006 | 14 | 200 | 0.0 | 0.0 | 0.00 | 0.00 | 0.00 | 94 | 1015.5 |
| 20260506072902 | 14 | 196 | 0.0 | 0.0 | 0.00 | 0.00 | 0.00 | 94 | 1015.4 |
| 20260506072802 | 14 | 196 | 0.0 | 0.0 | 0.00 | 0.00 | 0.00 | 94 | 1015.4 |
| 20260506072703 | 14 | 196 | 0.0 | 0.0 | 0.00 | 0.00 | 0.00 | 94 | 1015.4 |
| 20260506072305 | 14 | 219 | 0.0 | 0.0 | 0.00 | 0.00 | 0.00 | 95 | 1015.4 |
| 20260506072202 | 14 | 182 | 0.0 | 0.0 | 0.00 | 0.00 | 0.00 | 95 | 1015.4 |
| 20260506072102 | 14 | 207 | 0.0 | 0.0 | 0.00 | 0.00 | 0.00 | 95 | 1015.4 |
| 20260506072005 | 14 | 207 | 0.0 | 0.0 | 0.00 | 0.00 | 0.00 | 95 | 1015.4 |
| 20260506071903 | 13 | 207 | 0.0 | 0.0 | 0.00 | 0.00 | 0.00 | 95 | 1015.4 |
| 20260506071802 | 13 | 207 | 0.0 | 0.0 | 0.00 | 0.00 | 0.00 | 95 | 1015.4 |
| 20260506071702 | 13 | 207 | 0.0 | 0.0 | 0.00 | 0.00 | 0.00 | 95 | 1015.5 |
| 20260506071602 | 13 | 208 | 0.0 | 0.0 | 0.00 | 0.00 | 0.00 | 95 | 1015.5 |
| 20260506071505 | 13 | 213 | 0.0 | 0.0 | 0.00 | 0.00 | 0.00 | 95 | 1015.5 |
| 20260506071403 | 13 | 188 | 0.0 | 0.0 | 0.00 | 0.00 | 0.00 | 95 | 1015.4 |
| 20260506071301 | 13 | 202 | 0.0 | 0.0 | 0.00 | 0.00 | 0.00 | 95 | 1015.5 |
| 20260506071202 | 13 | 186 | 0.0 | 0.0 | 0.00 | 0.00 | 0.00 | 95 | 1015.5 |
| 20260506071103 | 13 | 184 | 0.0 | 0.0 | 0.00 | 0.00 | 0.00 | 95 | 1015.5 |
| 20260506071005 | 13 | 197 | 0.0 | 0.0 | 0.00 | 0.00 | 0.00 | 94 | 1015.6 |
| 20260506070903 | 13 | 197 | 0.0 | 0.0 | 0.00 | 0.00 | 0.00 | 94 | 1015.6 |
| 20260506070702 | 13 | 227 | 0.0 | 0.0 | 0.00 | 0.00 | 0.00 | 94 | 1015.6 |
| 20260506070602 | 13 | 196 | 0.0 | 0.0 | 0.00 | 0.00 | 0.00 | 94 | 1015.6 |
| 20260506070505 | 13 | 194 | 0.0 | 0.0 | 0.00 | 0.00 | 0.00 | 94 | 1015.7 |
| 20260506070302 | 13 | 191 | 0.0 | 0.0 | 0.00 | 0.00 | 0.00 | 94 | 1015.6 |
| 20260506070204 | 13 | 191 | 0.0 | 0.0 | 0.00 | 0.00 | 0.00 | 94 | 1015.6 |
| 20260506062506 | 13 | 189 | 0.0 | 0.0 | 0.00 | 0.00 | 0.00 | 94 | 1015.8 |
| 20260506062305 | 13 | 190 | 0.0 | 0.0 | 0.00 | 0.00 | 0.00 | 93 | 1015.8 |
| 20260506062203 | 13 | 190 | 0.0 | 0.0 | 0.00 | 0.00 | 0.00 | 94 | 1015.8 |
| 20260506062103 | 13 | 189 | 0.0 | 0.0 | 0.00 | 0.00 | 0.00 | 93 | 1015.8 |
| 20260506062006 | 13 | 189 | 0.0 | 0.0 | 0.00 | 0.00 | 0.00 | 94 | 1015.8 |
| 20260506061902 | 13 | 189 | 0.0 | 0.0 | 0.00 | 0.00 | 0.00 | 93 | 1015.9 |
| 20260506061802 | 13 | 189 | 0.0 | 0.0 | 0.00 | 0.00 | 0.00 | 93 | 1015.9 |
| 20260506061703 | 13 | 190 | 0.0 | 0.0 | 0.00 | 0.00 | 0.00 | 93 | 1015.8 |
| 20260506061602 | 13 | 189 | 0.0 | 0.0 | 0.00 | 0.00 | 0.00 | 93 | 1015.7 |
| 20260506061505 | 13 | 190 | 0.0 | 0.0 | 0.00 | 0.00 | 0.00 | 93 | 1015.7 |
| 20260506061403 | 13 | 189 | 0.0 | 0.0 | 0.00 | 0.00 | 0.00 | 93 | 1015.8 |
| 20260506061302 | 13 | 190 | 0.0 | 0.0 | 0.00 | 0.00 | 0.00 | 93 | 1015.7 |
| 20260506061201 | 13 | 189 | 0.0 | 0.0 | 0.00 | 0.00 | 0.00 | 93 | 1015.7 |
| 20260506061102 | 13 | 167 | 0.0 | 0.0 | 0.00 | 0.00 | 0.00 | 93 | 1015.7 |
| 20260506061006 | 13 | 167 | 0.0 | 0.0 | 0.00 | 0.00 | 0.00 | 93 | 1015.7 |
| 20260506060902 | 13 | 159 | 0.0 | 0.0 | 0.00 | 0.00 | 0.00 | 93 | 1015.7 |
| 20260506060804 | 13 | 159 | 0.0 | 0.0 | 0.00 | 0.00 | 0.00 | 93 | 1015.7 |
| 20260506060604 | 13 | 159 | 0.0 | 0.0 | 0.00 | 0.00 | 0.00 | 93 | 1015.5 |
| 20260506060506 | 13 | 159 | 0.0 | 0.0 | 0.00 | 0.00 | 0.00 | 93 | 1015.6 |
| 20260506060402 | 13 | 159 | 0.0 | 0.0 | 0.00 | 0.00 | 0.00 | 93 | 1015.5 |
| 20260506060303 | 13 | 159 | 0.0 | 0.0 | 0.00 | 0.00 | 0.00 | 93 | 1015.5 |
| 20260506051403 | 14 | 159 | 0.0 | 0.0 | 0.00 | 0.00 | 0.00 | 91 | 1016.4 |
| 20260506051302 | 14 | 159 | 0.0 | 0.0 | 0.00 | 0.00 | 0.00 | 91 | 1016.4 |
| 20260506051202 | 14 | 159 | 0.0 | 0.0 | 0.00 | 0.00 | 0.00 | 91 | 1016.4 |
| 20260506051102 | 14 | 159 | 0.0 | 0.0 | 0.00 | 0.00 | 0.00 | 91 | 1016.4 |
| 20260506051006 | 14 | 159 | 0.0 | 0.0 | 0.00 | 0.00 | 0.00 | 91 | 1016.4 |
| 20260506050903 | 14 | 159 | 0.0 | 0.0 | 0.00 | 0.00 | 0.00 | 91 | 1016.4 |
| 20260506050803 | 14 | 159 | 0.0 | 0.0 | 0.00 | 0.00 | 0.00 | 91 | 1016.4 |
| 20260506050702 | 14 | 159 | 0.0 | 0.0 | 0.00 | 0.00 | 0.00 | 91 | 1016.4 |
| 20260506050603 | 14 | 159 | 0.0 | 0.0 | 0.00 | 0.00 | 0.00 | 91 | 1016.4 |
| 20260506050505 | 14 | 159 | 0.0 | 0.0 | 0.00 | 0.00 | 0.00 | 91 | 1016.5 |
| 20260506050404 | 14 | 159 | 0.0 | 0.0 | 0.00 | 0.00 | 0.00 | 91 | 1016.4 |
| 20260506050202 | 14 | 159 | 0.0 | 0.0 | 0.00 | 0.00 | 0.00 | 91 | 1016.4 |
| 20260506044904 | 14 | 159 | 0.0 | 0.0 | 0.00 | 0.00 | 0.00 | 90 | 1016.6 |
| 20260506044803 | 14 | 159 | 0.0 | 0.0 | 0.00 | 0.00 | 0.00 | 90 | 1016.6 |
| 20260506044704 | 14 | 159 | 0.0 | 0.0 | 0.00 | 0.00 | 0.00 | 90 | 1016.6 |
| 20260506044604 | 14 | 159 | 0.0 | 0.0 | 0.00 | 0.00 | 0.00 | 90 | 1016.7 |
| 20260506044506 | 14 | 159 | 0.0 | 0.0 | 0.00 | 0.00 | 0.00 | 90 | 1016.7 |
| 20260506044404 | 14 | 159 | 0.0 | 0.0 | 0.00 | 0.00 | 0.00 | 90 | 1016.7 |
| 20260506044303 | 14 | 159 | 0.0 | 0.0 | 0.00 | 0.00 | 0.00 | 90 | 1016.8 |
| 20260506044205 | 14 | 159 | 0.0 | 0.0 | 0.00 | 0.00 | 0.00 | 90 | 1016.8 |
| 20260506044103 | 14 | 159 | 0.0 | 0.0 | 0.00 | 0.00 | 0.00 | 90 | 1016.8 |
| 20260506044005 | 14 | 159 | 0.0 | 0.0 | 0.00 | 0.00 | 0.00 | 90 | 1016.8 |
| 20260506043604 | 15 | 159 | 0.0 | 0.0 | 0.00 | 0.00 | 0.00 | 90 | 1016.8 |
| 20260506043506 | 15 | 159 | 0.0 | 0.0 | 0.00 | 0.00 | 0.00 | 90 | 1016.8 |
| 20260506043303 | 15 | 159 | 0.0 | 0.0 | 0.00 | 0.00 | 0.00 | 90 | 1017.0 |
| 20260506043203 | 15 | 159 | 0.0 | 0.0 | 0.00 | 0.00 | 0.00 | 90 | 1017.0 |
| 20260506043103 | 15 | 159 | 0.0 | 0.0 | 0.00 | 0.00 | 0.00 | 90 | 1016.8 |
| 20260506043007 | 15 | 159 | 0.0 | 0.0 | 0.00 | 0.00 | 0.00 | 89 | 1016.8 |
| 20260506042904 | 15 | 159 | 0.0 | 0.0 | 0.00 | 0.00 | 0.00 | 89 | 1016.7 |
| 20260506042804 | 15 | 159 | 0.0 | 0.0 | 0.00 | 0.00 | 0.00 | 89 | 1016.7 |
| 20260506042703 | 15 | 159 | 0.0 | 0.0 | 0.00 | 0.00 | 0.00 | 89 | 1016.8 |
| 20260506042403 | 15 | 159 | 0.0 | 0.0 | 0.00 | 0.00 | 0.00 | 89 | 1016.9 |
| 20260506042305 | 15 | 159 | 0.0 | 0.0 | 0.00 | 0.00 | 0.00 | 89 | 1016.9 |
| 20260506042204 | 15 | 159 | 0.0 | 0.0 | 0.00 | 0.00 | 0.00 | 89 | 1016.9 |
| 20260506042103 | 15 | 159 | 0.0 | 0.0 | 0.00 | 0.00 | 0.00 | 89 | 1016.8 |
| 20260506042006 | 15 | 159 | 0.0 | 0.0 | 0.00 | 0.00 | 0.00 | 89 | 1016.9 |
| 20260506041904 | 15 | 159 | 0.0 | 0.0 | 0.00 | 0.00 | 0.00 | 89 | 1016.9 |
| 20260506041804 | 15 | 159 | 0.0 | 0.0 | 0.00 | 0.00 | 0.00 | 89 | 1016.9 |
| 20260506041704 | 15 | 159 | 0.0 | 0.0 | 0.00 | 0.00 | 0.00 | 89 | 1016.9 |
| 20260506041603 | 15 | 159 | 0.0 | 0.0 | 0.00 | 0.00 | 0.00 | 89 | 1016.8 |
| 20260506041506 | 15 | 159 | 0.0 | 0.0 | 0.00 | 0.00 | 0.00 | 89 | 1016.8 |
| 20260506041103 | 15 | 159 | 0.0 | 0.0 | 0.00 | 0.00 | 0.00 | 89 | 1016.8 |
| 20260506041006 | 15 | 159 | 0.0 | 0.0 | 0.00 | 0.00 | 0.00 | 89 | 1016.8 |
| 20260506040903 | 15 | 159 | 0.0 | 0.0 | 0.00 | 0.00 | 0.00 | 89 | 1016.7 |
| 20260506040804 | 15 | 159 | 0.0 | 0.0 | 0.00 | 0.00 | 0.00 | 89 | 1016.7 |
| 20260506040703 | 15 | 159 | 0.0 | 0.0 | 0.00 | 0.00 | 0.00 | 89 | 1016.6 |
| 20260506040604 | 15 | 159 | 0.0 | 0.0 | 0.00 | 0.00 | 0.00 | 89 | 1016.7 |
| 20260506040505 | 15 | 169 | 0.0 | 0.0 | 0.00 | 0.00 | 0.00 | 89 | 1016.7 |
| 20260506040403 | 15 | 196 | 0.0 | 0.0 | 0.00 | 0.00 | 0.00 | 89 | 1016.7 |
| 20260506040303 | 15 | 196 | 0.0 | 0.0 | 0.00 | 0.00 | 0.00 | 89 | 1016.7 |
| 20260506040204 | 15 | 203 | 0.0 | 0.0 | 0.00 | 0.00 | 0.00 | 89 | 1016.7 |
| 20260506040011 | 15 | 203 | 0.0 | 0.0 | 0.00 | 0.00 | 0.00 | 89 | 1016.7 |
| 20260506035905 | 15 | 203 | 0.0 | 0.0 | 0.00 | 0.00 | 0.00 | 89 | 1016.8 |
| 20260506035804 | 15 | 203 | 0.0 | 0.0 | 0.00 | 0.00 | 0.00 | 88 | 1016.8 |
| 20260506035705 | 15 | 203 | 0.0 | 0.0 | 0.00 | 0.00 | 0.00 | 88 | 1016.8 |
| 20260506035606 | 15 | 203 | 0.0 | 0.0 | 0.00 | 0.00 | 0.00 | 88 | 1016.8 |
| 20260506035506 | 15 | 203 | 0.0 | 0.0 | 0.00 | 0.00 | 0.00 | 88 | 1016.8 |
| 20260506035306 | 15 | 203 | 0.0 | 0.0 | 0.00 | 0.00 | 0.00 | 88 | 1016.8 |
| 20260506035204 | 15 | 203 | 0.0 | 0.0 | 0.00 | 0.00 | 0.00 | 88 | 1016.8 |
| 20260506035105 | 15 | 203 | 0.0 | 0.0 | 0.00 | 0.00 | 0.00 | 88 | 1016.8 |
| 20260506035006 | 15 | 203 | 0.0 | 0.0 | 0.00 | 0.00 | 0.00 | 88 | 1016.8 |
| 20260506034905 | 15 | 150 | 0.0 | 0.0 | 0.00 | 0.00 | 0.00 | 88 | 1016.7 |
| 20260506034804 | 15 | 150 | 0.0 | 0.0 | 0.00 | 0.00 | 0.00 | 88 | 1016.8 |
| 20260506034705 | 15 | 150 | 0.0 | 0.0 | 0.00 | 0.00 | 0.00 | 88 | 1016.8 |
| 20260506034604 | 15 | 150 | 0.0 | 0.0 | 0.00 | 0.00 | 0.00 | 88 | 1016.7 |
| 20260506034506 | 15 | 150 | 0.0 | 0.0 | 0.00 | 0.00 | 0.00 | 88 | 1016.7 |
| 20260506034405 | 15 | 150 | 0.0 | 0.0 | 0.00 | 0.00 | 0.00 | 88 | 1016.8 |
| 20260506034304 | 15 | 150 | 0.0 | 0.0 | 0.00 | 0.00 | 0.00 | 88 | 1016.7 |
| 20260506034205 | 15 | 150 | 0.0 | 0.0 | 0.00 | 0.00 | 0.00 | 87 | 1016.7 |
| 20260506034104 | 15 | 150 | 0.0 | 0.0 | 0.00 | 0.00 | 0.00 | 87 | 1016.7 |
| 20260506034007 | 15 | 150 | 0.0 | 0.0 | 0.00 | 0.00 | 0.00 | 87 | 1016.7 |
| 20260506033904 | 15 | 150 | 0.0 | 0.0 | 0.00 | 0.00 | 0.00 | 87 | 1016.7 |
| 20260506033805 | 15 | 150 | 0.0 | 0.0 | 0.00 | 0.00 | 0.00 | 87 | 1016.6 |
| 20260506033704 | 15 | 150 | 0.0 | 0.0 | 0.00 | 0.00 | 0.00 | 87 | 1016.6 |
| 20260506033604 | 15 | 150 | 0.0 | 0.0 | 0.00 | 0.00 | 0.00 | 87 | 1016.6 |
| 20260506033506 | 15 | 150 | 0.0 | 0.0 | 0.00 | 0.00 | 0.00 | 87 | 1016.6 |
| 20260506033405 | 15 | 150 | 0.0 | 0.0 | 0.00 | 0.00 | 0.00 | 87 | 1016.6 |
| 20260506033304 | 15 | 150 | 0.0 | 0.0 | 0.00 | 0.00 | 0.00 | 87 | 1016.6 |
| 20260506033204 | 15 | 150 | 0.0 | 0.0 | 0.00 | 0.00 | 0.00 | 87 | 1016.7 |
| 20260506033105 | 15 | 150 | 0.0 | 0.0 | 0.00 | 0.00 | 0.00 | 86 | 1016.6 |
| 20260506033008 | 15 | 150 | 0.0 | 0.0 | 0.00 | 0.00 | 0.00 | 86 | 1016.7 |
| 20260506032905 | 15 | 150 | 0.0 | 0.0 | 0.00 | 0.00 | 0.00 | 86 | 1016.8 |
| 20260506032804 | 15 | 150 | 0.0 | 0.0 | 0.00 | 0.00 | 0.00 | 86 | 1016.7 |
| 20260506032705 | 15 | 150 | 0.0 | 0.0 | 0.00 | 0.00 | 0.00 | 86 | 1016.7 |
| 20260506032604 | 15 | 150 | 0.0 | 0.0 | 0.00 | 0.00 | 0.00 | 86 | 1016.7 |
| 20260506032506 | 15 | 150 | 0.0 | 0.0 | 0.00 | 0.00 | 0.00 | 86 | 1016.7 |
| 20260506032404 | 15 | 150 | 0.0 | 0.0 | 0.00 | 0.00 | 0.00 | 86 | 1016.7 |
| 20260506032306 | 15 | 150 | 0.0 | 0.0 | 0.00 | 0.00 | 0.00 | 86 | 1016.6 |
| 20260506032205 | 15 | 150 | 0.0 | 0.0 | 0.00 | 0.00 | 0.00 | 86 | 1016.7 |
| 20260506031605 | 16 | 150 | 0.0 | 0.0 | 0.00 | 0.00 | 0.00 | 86 | 1016.7 |
| 20260506031506 | 16 | 87 | 0.0 | 0.0 | 0.00 | 0.00 | 0.00 | 85 | 1016.7 |
| 20260506031404 | 16 | 87 | 0.0 | 0.0 | 0.00 | 0.00 | 0.00 | 85 | 1016.6 |
| 20260506031305 | 16 | 87 | 0.0 | 0.0 | 0.00 | 0.00 | 0.00 | 85 | 1016.6 |
| 20260506031204 | 16 | 87 | 0.0 | 0.0 | 0.00 | 0.00 | 0.00 | 85 | 1016.6 |
| 20260506031105 | 16 | 110 | 0.0 | 0.0 | 0.00 | 0.00 | 0.00 | 85 | 1016.6 |
| 20260506031006 | 16 | 110 | 0.0 | 0.0 | 0.00 | 0.00 | 0.00 | 85 | 1016.5 |
| 20260506030905 | 16 | 110 | 0.0 | 0.0 | 0.00 | 0.00 | 0.00 | 85 | 1016.5 |
| 20260506030804 | 16 | 110 | 0.0 | 0.0 | 0.00 | 0.00 | 0.00 | 85 | 1016.6 |
| 20260506030704 | 16 | 110 | 0.0 | 0.0 | 0.00 | 0.00 | 0.00 | 85 | 1016.7 |
| 20260506030604 | 16 | 110 | 0.0 | 0.0 | 0.00 | 0.00 | 0.00 | 85 | 1016.6 |
| 20260506030506 | 16 | 110 | 0.0 | 0.0 | 0.00 | 0.00 | 0.00 | 85 | 1016.6 |
| 20260506030205 | 16 | 110 | 0.0 | 0.0 | 0.00 | 0.00 | 0.00 | 84 | 1016.7 |
| 20260506030105 | 16 | 110 | 0.0 | 0.0 | 0.00 | 0.00 | 0.00 | 84 | 1016.7 |
| 20260506030008 | 16 | 110 | 0.0 | 0.0 | 0.00 | 0.00 | 0.00 | 84 | 1016.7 |
| 20260506025905 | 16 | 110 | 0.0 | 0.0 | 0.00 | 0.00 | 0.00 | 84 | 1016.7 |
| 20260506025804 | 16 | 110 | 0.0 | 0.0 | 0.00 | 0.00 | 0.00 | 84 | 1016.6 |
| 20260506025705 | 16 | 110 | 0.0 | 0.0 | 0.00 | 0.00 | 0.00 | 84 | 1016.7 |
| 20260506025604 | 16 | 108 | 0.0 | 0.0 | 0.00 | 0.00 | 0.00 | 84 | 1016.7 |
| 20260506025506 | 16 | 108 | 0.0 | 0.0 | 0.00 | 0.00 | 0.00 | 83 | 1016.7 |
| 20260506025405 | 16 | 108 | 0.0 | 0.0 | 0.00 | 0.00 | 0.00 | 83 | 1016.6 |
| 20260506025105 | 16 | 116 | 0.0 | 0.0 | 0.00 | 0.00 | 0.00 | 83 | 1016.7 |
| 20260506025006 | 16 | 119 | 0.0 | 0.0 | 0.00 | 0.00 | 0.00 | 83 | 1016.7 |
| 20260506024804 | 16 | 135 | 0.0 | 0.0 | 0.00 | 0.00 | 0.00 | 83 | 1016.7 |
| 20260506024704 | 16 | 135 | 0.0 | 0.0 | 0.00 | 0.00 | 0.00 | 83 | 1016.8 |
| 20260506024605 | 16 | 135 | 0.0 | 0.0 | 0.00 | 0.00 | 0.00 | 83 | 1016.8 |
| 20260506024506 | 16 | 135 | 0.0 | 0.0 | 0.00 | 0.00 | 0.00 | 83 | 1016.9 |
| 20260506024404 | 16 | 135 | 0.0 | 0.0 | 0.00 | 0.00 | 0.00 | 83 | 1016.9 |
| 20260506024304 | 16 | 135 | 0.0 | 0.0 | 0.00 | 0.00 | 0.00 | 83 | 1016.9 |
| 20260506024204 | 16 | 135 | 0.0 | 0.0 | 0.00 | 0.00 | 0.00 | 83 | 1016.8 |
| 20260506024106 | 16 | 154 | 0.0 | 0.0 | 0.00 | 0.00 | 0.00 | 83 | 1016.9 |
| 20260506024006 | 16 | 154 | 0.0 | 0.0 | 0.00 | 0.00 | 0.00 | 83 | 1016.9 |
| 20260506023805 | 16 | 177 | 0.0 | 0.0 | 0.00 | 0.00 | 0.00 | 82 | 1016.9 |
| 20260506023704 | 16 | 177 | 0.0 | 0.0 | 0.00 | 0.00 | 0.00 | 82 | 1016.9 |
| 20260506023604 | 16 | 177 | 0.0 | 0.0 | 0.00 | 0.00 | 0.00 | 82 | 1016.9 |
| 20260506023505 | 16 | 177 | 0.0 | 0.0 | 0.00 | 0.00 | 0.00 | 82 | 1016.9 |
| 20260506023405 | 16 | 177 | 0.0 | 0.0 | 0.00 | 0.00 | 0.00 | 82 | 1016.9 |
| 20260506023205 | 17 | 177 | 0.0 | 0.0 | 0.00 | 0.00 | 0.00 | 82 | 1016.9 |
| 20260506022904 | 17 | 177 | 0.0 | 0.0 | 0.00 | 0.00 | 0.00 | 82 | 1017.0 |
| 20260506022805 | 17 | 177 | 0.0 | 0.0 | 0.00 | 0.00 | 0.00 | 82 | 1017.0 |
| 20260506022705 | 17 | 177 | 0.0 | 0.0 | 0.00 | 0.00 | 0.00 | 82 | 1017.0 |
| 20260506022604 | 17 | 177 | 0.0 | 0.0 | 0.00 | 0.00 | 0.00 | 81 | 1017.0 |
| 20260506022505 | 17 | 177 | 0.0 | 0.0 | 0.00 | 0.00 | 0.00 | 81 | 1017.1 |
| 20260506022405 | 17 | 177 | 0.0 | 0.0 | 0.00 | 0.00 | 0.00 | 81 | 1017.1 |
| 20260506022306 | 17 | 177 | 0.0 | 0.0 | 0.00 | 0.00 | 0.00 | 81 | 1017.1 |
| 20260506022205 | 17 | 177 | 0.0 | 0.0 | 0.00 | 0.00 | 0.00 | 81 | 1017.1 |
| 20260506022104 | 17 | 177 | 0.0 | 0.0 | 0.00 | 0.00 | 0.00 | 81 | 1017.0 |
| 20260506022006 | 17 | 177 | 0.0 | 0.0 | 0.00 | 0.00 | 0.00 | 81 | 1017.0 |
| 20260506021904 | 17 | 177 | 0.0 | 0.0 | 0.00 | 0.00 | 0.00 | 81 | 1017.0 |
| 20260506021604 | 17 | 177 | 0.0 | 1.6 | 0.00 | 0.00 | 0.00 | 80 | 1017.1 |
| 20260506021506 | 17 | 177 | 0.0 | 1.6 | 0.00 | 0.00 | 0.00 | 80 | 1017.1 |
| 20260506021404 | 17 | 177 | 0.0 | 1.6 | 0.00 | 0.00 | 0.00 | 80 | 1017.1 |
| 20260506021305 | 17 | 176 | 0.0 | 1.6 | 0.00 | 0.00 | 0.00 | 79 | 1017.0 |
| 20260506021205 | 17 | 164 | 0.0 | 1.6 | 0.00 | 0.00 | 0.00 | 79 | 1017.0 |
| 20260506021104 | 17 | 164 | 0.0 | 1.6 | 0.00 | 0.00 | 0.00 | 79 | 1016.9 |
| 20260506021006 | 17 | 164 | 0.0 | 1.6 | 0.00 | 0.00 | 0.00 | 79 | 1016.8 |
| 20260506020905 | 17 | 164 | 0.0 | 0.0 | 0.00 | 0.00 | 0.00 | 79 | 1016.8 |
| 20260506020805 | 17 | 164 | 0.0 | 0.0 | 0.00 | 0.00 | 0.00 | 79 | 1016.9 |
| 20260506020704 | 17 | 164 | 0.0 | 0.0 | 0.00 | 0.00 | 0.00 | 79 | 1016.9 |
| 20260506020404 | 17 | 164 | 0.0 | 0.0 | 0.00 | 0.00 | 0.00 | 78 | 1016.8 |
| 20260506020304 | 17 | 164 | 0.0 | 0.0 | 0.00 | 0.00 | 0.00 | 78 | 1016.9 |
| 20260506020204 | 17 | 164 | 0.0 | 1.6 | 0.00 | 0.00 | 0.00 | 78 | 1016.8 |
| 20260506020104 | 17 | 164 | 0.0 | 1.6 | 0.00 | 0.00 | 0.00 | 78 | 1016.9 |
| 20260506020006 | 17 | 164 | 0.0 | 1.6 | 0.00 | 0.00 | 0.00 | 78 | 1016.9 |
| 20260506015905 | 17 | 164 | 0.0 | 1.6 | 0.00 | 0.00 | 0.00 | 77 | 1016.9 |
| 20260506015804 | 17 | 164 | 0.0 | 1.6 | 0.00 | 0.00 | 0.00 | 77 | 1016.8 |
| 20260506015704 | 17 | 164 | 0.0 | 3.2 | 0.00 | 0.00 | 0.00 | 77 | 1016.8 |
| 20260506015604 | 17 | 164 | 0.0 | 3.2 | 0.00 | 0.00 | 0.00 | 77 | 1016.7 |
| 20260506015506 | 17 | 164 | 0.0 | 3.2 | 0.00 | 0.00 | 0.00 | 77 | 1016.7 |
| 20260506015406 | 17 | 164 | 0.0 | 3.2 | 0.00 | 0.00 | 0.00 | 77 | 1016.7 |
| 20260506015205 | 17 | 164 | 0.0 | 3.2 | 0.00 | 0.00 | 0.00 | 77 | 1016.7 |
| 20260506015103 | 17 | 164 | 1.6 | 3.2 | 0.00 | 0.00 | 0.00 | 77 | 1016.8 |
| 20260506015006 | 17 | 164 | 1.6 | 3.2 | 0.00 | 0.00 | 0.00 | 77 | 1016.7 |
| 20260506014905 | 17 | 164 | 1.6 | 3.2 | 0.00 | 0.00 | 0.00 | 76 | 1016.8 |
| 20260506014705 | 18 | 144 | 0.0 | 3.2 | 0.00 | 0.00 | 0.00 | 76 | 1016.7 |
| 20260506014604 | 18 | 144 | 0.0 | 3.2 | 0.00 | 0.00 | 0.00 | 76 | 1016.7 |
| 20260506014506 | 18 | 144 | 0.0 | 3.2 | 0.00 | 0.00 | 0.00 | 76 | 1016.7 |
| 20260506014304 | 18 | 144 | 0.0 | 3.2 | 0.00 | 0.00 | 0.00 | 76 | 1016.6 |
| 20260506014204 | 18 | 144 | 0.0 | 3.2 | 0.00 | 0.00 | 0.00 | 76 | 1016.5 |
| 20260506014104 | 18 | 144 | 0.0 | 3.2 | 0.00 | 0.00 | 0.00 | 76 | 1016.6 |
| 20260506014006 | 18 | 144 | 0.0 | 3.2 | 0.00 | 0.00 | 0.00 | 75 | 1016.5 |
| 20260506013904 | 18 | 146 | 0.0 | 3.2 | 0.00 | 0.00 | 0.00 | 75 | 1016.5 |
| 20260506013805 | 18 | 151 | 0.0 | 3.2 | 0.00 | 0.00 | 0.00 | 75 | 1016.5 |
| 20260506013704 | 18 | 151 | 0.0 | 3.2 | 0.00 | 0.00 | 0.00 | 75 | 1016.5 |
| 20260506013606 | 18 | 151 | 1.6 | 3.2 | 0.00 | 0.00 | 0.00 | 75 | 1016.5 |
| 20260506013507 | 18 | 151 | 1.6 | 3.2 | 0.00 | 0.00 | 0.00 | 75 | 1016.4 |
| 20260506013204 | 18 | 162 | 1.6 | 4.8 | 0.00 | 0.00 | 0.00 | 75 | 1016.4 |
| 20260506013108 | 18 | 162 | 1.6 | 4.8 | 0.00 | 0.00 | 0.00 | 74 | 1016.4 |
| 20260506013006 | 18 | 160 | 1.6 | 4.8 | 0.00 | 0.00 | 0.00 | 74 | 1016.4 |
| 20260506012904 | 18 | 178 | 1.6 | 4.8 | 0.00 | 0.00 | 0.00 | 74 | 1016.4 |
| 20260506012804 | 18 | 152 | 0.0 | 4.8 | 0.00 | 0.00 | 0.00 | 74 | 1016.5 |
| 20260506012704 | 18 | 152 | 1.6 | 4.8 | 0.00 | 0.00 | 0.00 | 74 | 1016.4 |
| 20260506012604 | 18 | 152 | 1.6 | 4.8 | 0.00 | 0.00 | 0.00 | 74 | 1016.4 |
| 20260506012506 | 18 | 167 | 1.6 | 4.8 | 0.00 | 0.00 | 0.00 | 74 | 1016.4 |
| 20260506012404 | 18 | 145 | 3.2 | 4.8 | 0.00 | 0.00 | 0.00 | 74 | 1016.4 |
| 20260506012104 | 18 | 156 | 1.6 | 6.4 | 0.00 | 0.00 | 0.00 | 74 | 1016.4 |
| 20260506012006 | 18 | 161 | 1.6 | 4.8 | 0.00 | 0.00 | 0.00 | 73 | 1016.4 |
| 20260506011904 | 18 | 111 | 1.6 | 4.8 | 0.00 | 0.00 | 0.00 | 73 | 1016.4 |
| 20260506011804 | 18 | 111 | 1.6 | 4.8 | 0.00 | 0.00 | 0.00 | 73 | 1016.4 |
| 20260506011704 | 18 | 139 | 1.6 | 4.8 | 0.00 | 0.00 | 0.00 | 73 | 1016.4 |
| 20260506011604 | 18 | 146 | 1.6 | 4.8 | 0.00 | 0.00 | 0.00 | 73 | 1016.4 |
| 20260506011507 | 18 | 159 | 1.6 | 4.8 | 0.00 | 0.00 | 0.00 | 73 | 1016.4 |
| 20260506011404 | 18 | 162 | 1.6 | 6.4 | 0.00 | 0.00 | 0.00 | 73 | 1016.3 |
| 20260506011305 | 18 | 135 | 1.6 | 4.8 | 0.00 | 0.00 | 0.00 | 73 | 1016.4 |
| 20260506011206 | 18 | 120 | 1.6 | 4.8 | 0.00 | 0.00 | 0.00 | 73 | 1016.4 |
| 20260506011104 | 18 | 148 | 1.6 | 4.8 | 0.00 | 0.00 | 0.00 | 73 | 1016.4 |
| 20260506011006 | 18 | 166 | 1.6 | 4.8 | 0.00 | 0.00 | 0.00 | 73 | 1016.3 |
| 20260506010904 | 18 | 173 | 1.6 | 4.8 | 0.00 | 0.00 | 0.00 | 73 | 1016.4 |
| 20260506010804 | 18 | 111 | 1.6 | 4.8 | 0.00 | 0.00 | 0.00 | 73 | 1016.3 |
| 20260506010704 | 18 | 115 | 3.2 | 4.8 | 0.00 | 0.00 | 0.00 | 72 | 1016.4 |
| 20260506010604 | 18 | 136 | 3.2 | 4.8 | 0.00 | 0.00 | 0.00 | 72 | 1016.4 |
| 20260506010506 | 18 | 136 | 3.2 | 4.8 | 0.00 | 0.00 | 0.00 | 72 | 1016.5 |
| 20260506010405 | 18 | 126 | 1.6 | 4.8 | 0.00 | 0.00 | 0.00 | 72 | 1016.5 |
| 20260506010304 | 18 | 165 | 1.6 | 8.0 | 0.00 | 0.00 | 0.00 | 71 | 1016.5 |
| 20260506010204 | 18 | 153 | 1.6 | 8.0 | 0.00 | 0.00 | 0.00 | 71 | 1016.5 |
| 20260506010105 | 18 | 138 | 0.0 | 8.0 | 0.00 | 0.00 | 0.00 | 71 | 1016.6 |
| 20260506010006 | 18 | 134 | 0.0 | 8.0 | 0.00 | 0.00 | 0.00 | 71 | 1016.4 |
| 20260506005904 | 19 | 131 | 1.6 | 8.0 | 0.00 | 0.00 | 0.00 | 71 | 1016.4 |
| 20260506005804 | 19 | 131 | 1.6 | 8.0 | 0.00 | 0.00 | 0.00 | 71 | 1016.5 |
| 20260506005704 | 19 | 115 | 1.6 | 8.0 | 0.00 | 0.00 | 0.00 | 71 | 1016.4 |
| 20260506005404 | 19 | 192 | 3.2 | 6.4 | 0.00 | 0.00 | 0.00 | 71 | 1016.3 |
| 20260506005305 | 19 | 147 | 1.6 | 6.4 | 0.00 | 0.00 | 0.00 | 71 | 1016.3 |
| 20260506005203 | 19 | 159 | 1.6 | 9.7 | 0.00 | 0.00 | 0.00 | 70 | 1016.4 |
| 20260506005104 | 19 | 160 | 1.6 | 9.7 | 0.00 | 0.00 | 0.00 | 70 | 1016.4 |
| 20260506005006 | 19 | 148 | 1.6 | 9.7 | 0.00 | 0.00 | 0.00 | 70 | 1016.4 |
| 20260506004804 | 19 | 144 | 1.6 | 9.7 | 0.00 | 0.00 | 0.00 | 70 | 1016.3 |
| 20260506004704 | 19 | 155 | 1.6 | 9.7 | 0.00 | 0.00 | 0.00 | 70 | 1016.4 |
| 20260506004604 | 19 | 140 | 1.6 | 9.7 | 0.00 | 0.00 | 0.00 | 69 | 1016.4 |
| 20260506004506 | 19 | 122 | 3.2 | 9.7 | 0.00 | 0.00 | 0.00 | 69 | 1016.4 |
| 20260506004403 | 19 | 164 | 3.2 | 9.7 | 0.00 | 0.00 | 0.00 | 69 | 1016.3 |
| 20260506004304 | 19 | 144 | 1.6 | 6.4 | 0.00 | 0.00 | 0.00 | 69 | 1016.3 |
| 20260506004205 | 19 | 130 | 1.6 | 6.4 | 0.00 | 0.00 | 0.00 | 69 | 1016.3 |
| 20260506004103 | 20 | 174 | 1.6 | 6.4 | 0.00 | 0.00 | 0.00 | 69 | 1016.3 |
| 20260506004005 | 20 | 134 | 1.6 | 6.4 | 0.00 | 0.00 | 0.00 | 69 | 1016.3 |
| 20260506003902 | 20 | 163 | 1.6 | 6.4 | 0.00 | 0.00 | 0.00 | 69 | 1016.3 |
| 20260506003802 | 20 | 155 | 1.6 | 6.4 | 0.00 | 0.00 | 0.00 | 69 | 1016.3 |
| 20260506003703 | 20 | 138 | 1.6 | 6.4 | 0.00 | 0.00 | 0.00 | 68 | 1016.3 |
| 20260506003603 | 20 | 141 | 3.2 | 6.4 | 0.00 | 0.00 | 0.00 | 68 | 1016.3 |
| 20260506003506 | 20 | 126 | 3.2 | 6.4 | 0.00 | 0.00 | 0.00 | 68 | 1016.3 |
| 20260506003403 | 20 | 139 | 3.2 | 6.4 | 0.00 | 0.00 | 0.00 | 68 | 1016.3 |
| 20260506003304 | 20 | 90 | 3.2 | 6.4 | 0.00 | 0.00 | 0.00 | 68 | 1016.3 |
| 20260506003203 | 20 | 150 | 3.2 | 9.7 | 0.00 | 0.00 | 0.00 | 68 | 1016.3 |
| 20260506003103 | 20 | 146 | 3.2 | 9.7 | 0.00 | 0.00 | 0.00 | 68 | 1016.3 |
| 20260506003006 | 20 | 173 | 3.2 | 9.7 | 0.00 | 0.00 | 0.00 | 68 | 1016.4 |
| 20260506002903 | 20 | 126 | 3.2 | 9.7 | 0.00 | 0.00 | 0.00 | 68 | 1016.3 |
| 20260506002803 | 20 | 140 | 1.6 | 9.7 | 0.00 | 0.00 | 0.00 | 68 | 1016.3 |
| 20260506002704 | 20 | 146 | 1.6 | 9.7 | 0.00 | 0.00 | 0.00 | 67 | 1016.3 |
| 20260506002603 | 20 | 103 | 1.6 | 9.7 | 0.00 | 0.00 | 0.00 | 67 | 1016.4 |
| 20260506002506 | 20 | 96 | 3.2 | 9.7 | 0.00 | 0.00 | 0.00 | 67 | 1016.4 |
| 20260506002404 | 20 | 169 | 4.8 | 9.7 | 0.00 | 0.00 | 0.00 | 67 | 1016.4 |
| 20260506002203 | 20 | 120 | 3.2 | 9.7 | 0.00 | 0.00 | 0.00 | 67 | 1016.4 |
| 20260506002103 | 20 | 97 | 3.2 | 6.4 | 0.00 | 0.00 | 0.00 | 67 | 1016.3 |
| 20260506002006 | 20 | 192 | 3.2 | 6.4 | 0.00 | 0.00 | 0.00 | 66 | 1016.3 |
| 20260506001903 | 20 | 81 | 1.6 | 6.4 | 0.00 | 0.00 | 0.00 | 66 | 1016.3 |
| 20260506001803 | 20 | 172 | 3.2 | 9.7 | 0.00 | 0.00 | 0.00 | 66 | 1016.3 |
| 20260506001703 | 20 | 155 | 3.2 | 9.7 | 0.00 | 0.00 | 0.00 | 66 | 1016.3 |
| 20260506001604 | 20 | 171 | 1.6 | 9.7 | 0.00 | 0.00 | 0.00 | 66 | 1016.4 |
| 20260506001506 | 20 | 165 | 1.6 | 9.7 | 0.00 | 0.00 | 0.00 | 66 | 1016.4 |
| 20260506001403 | 20 | 141 | 1.6 | 9.7 | 0.00 | 0.00 | 0.00 | 66 | 1016.3 |
| 20260506001304 | 20 | 112 | 3.2 | 9.7 | 0.00 | 0.00 | 0.00 | 66 | 1016.3 |
| 20260506001203 | 20 | 165 | 3.2 | 12.9 | 0.00 | 0.00 | 0.00 | 66 | 1016.3 |
| 20260506001104 | 20 | 171 | 4.8 | 12.9 | 0.00 | 0.00 | 0.00 | 66 | 1016.2 |
| 20260506001005 | 20 | 155 | 4.8 | 12.9 | 0.00 | 0.00 | 0.00 | 65 | 1016.2 |
| 20260506000904 | 20 | 155 | 4.8 | 12.9 | 0.00 | 0.00 | 0.00 | 65 | 1016.2 |
| 20260506000803 | 20 | 167 | 3.2 | 12.9 | 0.00 | 0.00 | 0.00 | 65 | 1016.2 |
| 20260506000704 | 20 | 205 | 3.2 | 12.9 | 0.00 | 0.00 | 0.00 | 65 | 1016.3 |
| 20260506000403 | 20 | 165 | 4.8 | 16.1 | 0.00 | 0.00 | 0.00 | 65 | 1016.2 |
| 20260506000304 | 20 | 129 | 4.8 | 16.1 | 0.00 | 0.00 | 0.00 | 65 | 1016.3 |
| 20260506000204 | 20 | 159 | 6.4 | 16.1 | 0.00 | 0.00 | 0.00 | 65 | 1016.2 |
| 20260506000104 | 21 | 159 | 4.8 | 16.1 | 0.00 | 0.00 | 0.00 | 65 | 1016.3 |
| 20260506000005 | 21 | 147 | 6.4 | 16.1 | 0.00 | 0.00 | 0.00 | 65 | 1016.3 |
| 20260505235903 | 21 | 36 | 4.8 | 16.1 | 0.00 | 0.00 | 0.00 | 65 | 1016.3 |
| 20260505235802 | 21 | 85 | 6.4 | 16.1 | 0.00 | 0.00 | 0.00 | 65 | 1016.3 |
| 20260505235704 | 21 | 145 | 8.0 | 16.1 | 0.00 | 0.00 | 0.00 | 65 | 1016.2 |
| 20260505235404 | 21 | 135 | 3.2 | 11.3 | 0.00 | 0.00 | 0.00 | 65 | 1016.2 |
| 20260505235305 | 21 | 131 | 3.2 | 11.3 | 0.00 | 0.00 | 0.00 | 65 | 1016.3 |
| 20260505235204 | 21 | 116 | 3.2 | 11.3 | 0.00 | 0.00 | 0.00 | 65 | 1016.3 |
| 20260505235104 | 21 | 98 | 3.2 | 20.9 | 0.00 | 0.00 | 0.00 | 65 | 1016.2 |
| 20260505235006 | 21 | 134 | 3.2 | 20.9 | 0.00 | 0.00 | 0.00 | 65 | 1016.3 |
| 20260505234904 | 21 | 91 | 3.2 | 20.9 | 0.00 | 0.00 | 0.00 | 64 | 1016.2 |
| 20260505234804 | 21 | 175 | 4.8 | 20.9 | 0.00 | 0.00 | 0.00 | 64 | 1016.2 |
| 20260505234703 | 21 | 116 | 4.8 | 20.9 | 0.00 | 0.00 | 0.00 | 64 | 1016.2 |
| 20260505234604 | 21 | 234 | 4.8 | 20.9 | 0.00 | 0.00 | 0.00 | 64 | 1016.2 |
| 20260505234506 | 21 | 173 | 4.8 | 20.9 | 0.00 | 0.00 | 0.00 | 64 | 1016.3 |
| 20260505234303 | 21 | 147 | 11.3 | 20.9 | 0.00 | 0.00 | 0.00 | 64 | 1016.3 |
| 20260505234203 | 21 | 112 | 9.7 | 19.3 | 0.00 | 0.00 | 0.00 | 64 | 1016.2 |
| 20260505234104 | 21 | 153 | 6.4 | 16.1 | 0.00 | 0.00 | 0.00 | 64 | 1016.3 |
| 20260505234006 | 21 | 153 | 6.4 | 17.7 | 0.00 | 0.00 | 0.00 | 63 | 1016.2 |
| 20260505233903 | 21 | 161 | 6.4 | 17.7 | 0.00 | 0.00 | 0.00 | 63 | 1016.2 |
| 20260505233804 | 21 | 167 | 9.7 | 17.7 | 0.00 | 0.00 | 0.00 | 63 | 1016.3 |
| 20260505233703 | 21 | 180 | 11.3 | 17.7 | 0.00 | 0.00 | 0.00 | 63 | 1016.2 |
| 20260505233604 | 21 | 144 | 8.0 | 17.7 | 0.00 | 0.00 | 0.00 | 63 | 1016.2 |
| 20260505233505 | 21 | 144 | 4.8 | 17.7 | 0.00 | 0.00 | 0.00 | 63 | 1016.2 |
| 20260505233404 | 21 | 185 | 8.0 | 24.1 | 0.00 | 0.00 | 0.00 | 63 | 1016.2 |
| 20260505233304 | 21 | 164 | 9.7 | 24.1 | 0.00 | 0.00 | 0.00 | 63 | 1016.2 |
| 20260505233204 | 21 | 126 | 6.4 | 24.1 | 0.00 | 0.00 | 0.00 | 63 | 1016.2 |
| 20260505233104 | 21 | 141 | 4.8 | 24.1 | 0.00 | 0.00 | 0.00 | 63 | 1016.1 |
| 20260505233006 | 21 | 136 | 4.8 | 24.1 | 0.00 | 0.00 | 0.00 | 63 | 1016.1 |
| 20260505232903 | 21 | 136 | 8.0 | 24.1 | 0.00 | 0.00 | 0.00 | 63 | 1016.1 |
| 20260505232803 | 21 | 71 | 9.7 | 24.1 | 0.00 | 0.00 | 0.00 | 63 | 1016.0 |
| 20260505232704 | 21 | 124 | 8.0 | 24.1 | 0.00 | 0.00 | 0.00 | 63 | 1016.0 |
| 20260505232603 | 21 | 138 | 6.4 | 22.5 | 0.00 | 0.00 | 0.00 | 63 | 1015.9 |
| 20260505232506 | 21 | 119 | 6.4 | 19.3 | 0.00 | 0.00 | 0.00 | 63 | 1015.9 |
| 20260505232403 | 21 | 163 | 4.8 | 19.3 | 0.00 | 0.00 | 0.00 | 63 | 1015.9 |
| 20260505232305 | 21 | 147 | 4.8 | 19.3 | 0.00 | 0.00 | 0.00 | 63 | 1015.9 |
| 20260505232203 | 21 | 136 | 6.4 | 19.3 | 0.00 | 0.00 | 0.00 | 63 | 1015.8 |
| 20260505231903 | 21 | 90 | 6.4 | 19.3 | 0.00 | 0.00 | 0.00 | 63 | 1015.9 |
| 20260505231803 | 21 | 215 | 6.4 | 20.9 | 0.00 | 0.00 | 0.00 | 63 | 1015.9 |
| 20260505231703 | 21 | 161 | 4.8 | 19.3 | 0.00 | 0.00 | 0.00 | 63 | 1016.0 |
| 20260505231403 | 21 | 153 | 11.3 | 19.3 | 0.00 | 0.00 | 0.00 | 62 | 1015.9 |
| 20260505231203 | 21 | 125 | 6.4 | 22.5 | 0.00 | 0.00 | 0.00 | 62 | 1015.9 |
| 20260505231103 | 22 | 137 | 8.0 | 22.5 | 0.00 | 0.00 | 0.00 | 62 | 1015.9 |
| 20260505230903 | 22 | 100 | 9.7 | 22.5 | 0.00 | 0.00 | 0.00 | 62 | 1016.0 |
| 20260505230803 | 22 | 130 | 8.0 | 22.5 | 0.00 | 0.00 | 0.00 | 63 | 1016.0 |
| 20260505230703 | 22 | 173 | 8.0 | 22.5 | 0.00 | 0.00 | 0.00 | 63 | 1016.0 |
| 20260505230604 | 22 | 162 | 8.0 | 22.5 | 0.00 | 0.00 | 0.00 | 63 | 1016.0 |
| 20260505230506 | 22 | 120 | 6.4 | 24.1 | 0.00 | 0.00 | 0.00 | 63 | 1016.1 |
| 20260505230203 | 22 | 157 | 9.7 | 24.1 | 0.00 | 0.00 | 0.00 | 63 | 1016.0 |
| 20260505230009 | 22 | 190 | 9.7 | 24.1 | 0.00 | 0.00 | 0.00 | 63 | 1016.0 |
| 20260505225905 | 22 | 169 | 9.7 | 24.1 | 0.00 | 0.00 | 0.00 | 62 | 1016.1 |
| 20260505225804 | 22 | 142 | 11.3 | 24.1 | 0.00 | 0.00 | 0.00 | 62 | 1016.1 |
| 20260505225705 | 22 | 154 | 9.7 | 24.1 | 0.00 | 0.00 | 0.00 | 62 | 1016.1 |
| 20260505225603 | 22 | 192 | 8.0 | 19.3 | 0.00 | 0.00 | 0.00 | 63 | 1016.1 |
| 20260505225506 | 22 | 109 | 8.0 | 19.3 | 0.00 | 0.00 | 0.00 | 63 | 1016.1 |
| 20260505225404 | 22 | 192 | 8.0 | 25.7 | 0.00 | 0.00 | 0.00 | 62 | 1016.1 |
| 20260505224904 | 22 | 193 | 8.0 | 25.7 | 0.00 | 0.00 | 0.00 | 62 | 1016.2 |
| 20260505224804 | 22 | 111 | 8.0 | 25.7 | 0.00 | 0.00 | 0.00 | 62 | 1016.1 |
| 20260505224704 | 22 | 101 | 11.3 | 25.7 | 0.00 | 0.00 | 0.00 | 62 | 1016.1 |
| 20260505224604 | 22 | 142 | 11.3 | 25.7 | 0.00 | 0.00 | 0.00 | 62 | 1016.2 |
| 20260505224505 | 22 | 115 | 9.7 | 16.1 | 0.00 | 0.00 | 0.00 | 62 | 1016.2 |
| 20260505224405 | 22 | 165 | 8.0 | 16.1 | 0.00 | 0.00 | 0.00 | 62 | 1016.2 |
| 20260505224306 | 22 | 150 | 8.0 | 22.5 | 0.00 | 0.00 | 0.00 | 62 | 1016.2 |
| 20260505224204 | 22 | 170 | 8.0 | 22.5 | 0.00 | 0.00 | 0.00 | 62 | 1016.0 |
| 20260505224105 | 22 | 135 | 8.0 | 22.5 | 0.00 | 0.00 | 0.00 | 62 | 1016.1 |
| 20260505223905 | 22 | 191 | 6.4 | 22.5 | 0.00 | 0.00 | 0.00 | 61 | 1016.0 |
| 20260505223804 | 22 | 89 | 6.4 | 29.0 | 0.00 | 0.00 | 0.00 | 62 | 1016.1 |
| 20260505223604 | 22 | 157 | 6.4 | 29.0 | 0.00 | 0.00 | 0.00 | 62 | 1016.1 |
| 20260505223506 | 22 | 173 | 8.0 | 29.0 | 0.00 | 0.00 | 0.00 | 61 | 1016.1 |
| 20260505223406 | 22 | 172 | 9.7 | 29.0 | 0.00 | 0.00 | 0.00 | 61 | 1016.1 |
| 20260505223305 | 22 | 47 | 9.7 | 29.0 | 0.00 | 0.00 | 0.00 | 61 | 1016.1 |
| 20260505223104 | 22 | 152 | 12.9 | 29.0 | 0.00 | 0.00 | 0.00 | 61 | 1016.1 |
| 20260505223006 | 22 | 136 | 9.7 | 29.0 | 0.00 | 0.00 | 0.00 | 61 | 1016.0 |
| 20260505222904 | 22 | 113 | 8.0 | 22.5 | 0.00 | 0.00 | 0.00 | 61 | 1016.0 |
| 20260505222806 | 22 | 173 | 11.3 | 22.5 | 0.00 | 0.00 | 0.00 | 61 | 1016.0 |
| 20260505222704 | 22 | 236 | 11.3 | 22.5 | 0.00 | 0.00 | 0.00 | 60 | 1016.0 |
| 20260505222404 | 22 | 83 | 4.8 | 22.5 | 0.00 | 0.00 | 0.00 | 61 | 1016.1 |
| 20260505222306 | 22 | 146 | 6.4 | 22.5 | 0.00 | 0.00 | 0.00 | 61 | 1016.1 |
| 20260505222103 | 22 | 168 | 8.0 | 20.9 | 0.00 | 0.00 | 0.00 | 60 | 1016.1 |
| 20260505222006 | 22 | 167 | 9.7 | 20.9 | 0.00 | 0.00 | 0.00 | 60 | 1016.1 |
| 20260505221905 | 22 | 202 | 11.3 | 20.9 | 0.00 | 0.00 | 0.00 | 60 | 1016.1 |
| 20260505221804 | 22 | 162 | 11.3 | 20.9 | 0.00 | 0.00 | 0.00 | 60 | 1016.1 |
| 20260505221705 | 22 | 110 | 11.3 | 20.9 | 0.00 | 0.00 | 0.00 | 60 | 1016.1 |
| 20260505221604 | 22 | 170 | 11.3 | 20.9 | 0.00 | 0.00 | 0.00 | 60 | 1016.0 |
| 20260505221507 | 22 | 154 | 9.7 | 20.9 | 0.00 | 0.00 | 0.00 | 60 | 1016.1 |
| 20260505221405 | 22 | 89 | 9.7 | 20.9 | 0.00 | 0.00 | 0.00 | 59 | 1016.1 |
| 20260505221304 | 22 | 179 | 9.7 | 20.9 | 0.00 | 0.00 | 0.00 | 60 | 1016.2 |
| 20260505221204 | 22 | 163 | 8.0 | 19.3 | 0.00 | 0.00 | 0.00 | 60 | 1016.0 |
| 20260505221104 | 22 | 171 | 8.0 | 19.3 | 0.00 | 0.00 | 0.00 | 59 | 1016.0 |
| 20260505221005 | 22 | 138 | 8.0 | 22.5 | 0.00 | 0.00 | 0.00 | 59 | 1016.0 |
| 20260505220904 | 22 | 175 | 9.7 | 22.5 | 0.00 | 0.00 | 0.00 | 59 | 1016.0 |
| 20260505220803 | 23 | 141 | 9.7 | 22.5 | 0.00 | 0.00 | 0.00 | 59 | 1016.0 |
| 20260505220705 | 23 | 74 | 8.0 | 22.5 | 0.00 | 0.00 | 0.00 | 59 | 1016.0 |
| 20260505220605 | 23 | 127 | 8.0 | 22.5 | 0.00 | 0.00 | 0.00 | 59 | 1016.0 |
| 20260505220506 | 23 | 171 | 6.4 | 22.5 | 0.00 | 0.00 | 0.00 | 59 | 1016.0 |
| 20260505220404 | 23 | 107 | 8.0 | 22.5 | 0.00 | 0.00 | 0.00 | 59 | 1016.0 |
| 20260505220304 | 23 | 92 | 9.7 | 22.5 | 0.00 | 0.00 | 0.00 | 58 | 1016.1 |
| 20260505220204 | 23 | 128 | 11.3 | 22.5 | 0.00 | 0.00 | 0.00 | 59 | 1016.1 |
| 20260505220104 | 23 | 94 | 9.7 | 22.5 | 0.00 | 0.00 | 0.00 | 58 | 1016.1 |
| 20260505220006 | 23 | 139 | 9.7 | 22.5 | 0.00 | 0.00 | 0.00 | 59 | 1016.1 |
| 20260505215904 | 23 | 35 | 6.4 | 22.5 | 0.00 | 0.00 | 0.00 | 59 | 1016.2 |
| 20260505215805 | 23 | 132 | 9.7 | 22.5 | 0.00 | 0.00 | 0.00 | 58 | 1016.2 |
| 20260505215605 | 23 | 190 | 9.7 | 24.1 | 0.00 | 0.00 | 0.00 | 58 | 1016.2 |
| 20260505215506 | 23 | 107 | 8.0 | 22.5 | 0.00 | 0.00 | 0.00 | 58 | 1016.2 |
| 20260505215405 | 23 | 122 | 8.0 | 22.5 | 0.00 | 0.00 | 0.00 | 58 | 1016.2 |
| 20260505215305 | 23 | 179 | 9.7 | 22.5 | 0.00 | 0.00 | 0.00 | 58 | 1016.1 |
| 20260505215204 | 23 | 194 | 9.7 | 25.7 | 0.00 | 0.00 | 0.00 | 58 | 1016.2 |
| 20260505215104 | 23 | 191 | 11.3 | 25.7 | 0.00 | 0.00 | 0.00 | 58 | 1016.2 |
| 20260505215005 | 23 | 161 | 11.3 | 25.7 | 0.00 | 0.00 | 0.00 | 58 | 1016.2 |
| 20260505214903 | 23 | 101 | 12.9 | 25.7 | 0.00 | 0.00 | 0.00 | 58 | 1016.3 |
| 20260505214805 | 23 | 148 | 11.3 | 25.7 | 0.00 | 0.00 | 0.00 | 58 | 1016.3 |
| 20260505214704 | 23 | 142 | 8.0 | 25.7 | 0.00 | 0.00 | 0.00 | 58 | 1016.2 |
| 20260505214605 | 23 | 144 | 8.0 | 25.7 | 0.00 | 0.00 | 0.00 | 58 | 1016.2 |
| 20260505214507 | 23 | 94 | 11.3 | 25.7 | 0.00 | 0.00 | 0.00 | 58 | 1016.2 |
| 20260505214404 | 23 | 95 | 11.3 | 25.7 | 0.00 | 0.00 | 0.00 | 57 | 1016.1 |
| 20260505214304 | 23 | 183 | 11.3 | 20.9 | 0.00 | 0.00 | 0.00 | 57 | 1016.2 |
| 20260505214204 | 23 | 92 | 11.3 | 17.7 | 0.00 | 0.00 | 0.00 | 57 | 1016.2 |
| 20260505214104 | 23 | 122 | 11.3 | 17.7 | 0.00 | 0.00 | 0.00 | 57 | 1016.1 |
| 20260505214006 | 23 | 93 | 12.9 | 17.7 | 0.00 | 0.00 | 0.00 | 57 | 1016.1 |
| 20260505213906 | 23 | 94 | 11.3 | 20.9 | 0.00 | 0.00 | 0.00 | 57 | 1016.1 |
| 20260505213804 | 23 | 171 | 9.7 | 17.7 | 0.00 | 0.00 | 0.00 | 57 | 1016.2 |
| 20260505213705 | 23 | 182 | 11.3 | 17.7 | 0.00 | 0.00 | 0.00 | 57 | 1016.2 |
| 20260505213604 | 23 | 165 | 11.3 | 19.3 | 0.00 | 0.00 | 0.00 | 57 | 1016.2 |
| 20260505213506 | 23 | 153 | 11.3 | 19.3 | 0.00 | 0.00 | 0.00 | 57 | 1016.2 |
| 20260505213304 | 23 | 153 | 9.7 | 19.3 | 0.00 | 0.00 | 0.00 | 57 | 1016.2 |
| 20260505213205 | 23 | 86 | 9.7 | 17.7 | 0.00 | 0.00 | 0.00 | 57 | 1016.2 |
| 20260505213105 | 23 | 152 | 8.0 | 17.7 | 0.00 | 0.00 | 0.00 | 57 | 1016.3 |
| 20260505213007 | 23 | 95 | 9.7 | 17.7 | 0.00 | 0.00 | 0.00 | 57 | 1016.2 |
| 20260505212803 | 23 | 169 | 6.4 | 17.7 | 0.00 | 0.00 | 0.00 | 57 | 1016.3 |
| 20260505212704 | 23 | 157 | 6.4 | 17.7 | 0.00 | 0.00 | 0.00 | 57 | 1016.2 |
| 20260505212404 | 23 | 158 | 9.7 | 20.9 | 0.00 | 0.00 | 0.00 | 56 | 1016.2 |
| 20260505212306 | 23 | 81 | 9.7 | 20.9 | 0.00 | 0.00 | 0.00 | 56 | 1016.2 |
| 20260505212204 | 23 | 144 | 9.7 | 22.5 | 0.00 | 0.00 | 0.00 | 56 | 1016.2 |
| 20260505212105 | 23 | 121 | 9.7 | 22.5 | 0.00 | 0.00 | 0.00 | 56 | 1016.2 |
| 20260505212005 | 23 | 150 | 11.3 | 22.5 | 0.00 | 0.00 | 0.00 | 56 | 1016.3 |
| 20260505211905 | 23 | 103 | 12.9 | 22.5 | 0.00 | 0.00 | 0.00 | 56 | 1016.3 |
| 20260505211806 | 23 | 128 | 11.3 | 22.5 | 0.00 | 0.00 | 0.00 | 56 | 1016.3 |
| 20260505211704 | 23 | 160 | 9.7 | 22.5 | 0.00 | 0.00 | 0.00 | 56 | 1016.4 |
| 20260505211604 | 23 | 175 | 9.7 | 22.5 | 0.00 | 0.00 | 0.00 | 56 | 1016.2 |
| 20260505211506 | 23 | 121 | 12.9 | 22.5 | 0.00 | 0.00 | 0.00 | 55 | 1016.2 |
| 20260505211403 | 23 | 163 | 11.3 | 22.5 | 0.00 | 0.00 | 0.00 | 56 | 1016.3 |
| 20260505211305 | 23 | 169 | 9.7 | 24.1 | 0.00 | 0.00 | 0.00 | 56 | 1016.3 |
| 20260505211204 | 23 | 111 | 9.7 | 24.1 | 0.00 | 0.00 | 0.00 | 56 | 1016.2 |
| 20260505211104 | 23 | 74 | 8.0 | 24.1 | 0.00 | 0.00 | 0.00 | 55 | 1016.2 |
| 20260505211008 | 23 | 167 | 8.0 | 24.1 | 0.00 | 0.00 | 0.00 | 56 | 1016.3 |
| 20260505210904 | 23 | 150 | 8.0 | 24.1 | 0.00 | 0.00 | 0.00 | 56 | 1016.2 |
| 20260505210804 | 23 | 156 | 8.0 | 24.1 | 0.00 | 0.00 | 0.00 | 55 | 1016.2 |
| 20260505210405 | 23 | 173 | 9.7 | 24.1 | 0.00 | 0.00 | 0.00 | 55 | 1016.3 |
| 20260505210305 | 23 | 64 | 9.7 | 24.1 | 0.00 | 0.00 | 0.00 | 55 | 1016.3 |
| 20260505210205 | 23 | 128 | 12.9 | 24.1 | 0.00 | 0.00 | 0.00 | 56 | 1016.3 |
| 20260505210104 | 23 | 209 | 14.5 | 24.1 | 0.00 | 0.00 | 0.00 | 55 | 1016.2 |
| 20260505210008 | 24 | 153 | 12.9 | 24.1 | 0.00 | 0.00 | 0.00 | 55 | 1016.2 |
| 20260505205905 | 24 | 129 | 14.5 | 24.1 | 0.00 | 0.00 | 0.00 | 55 | 1016.2 |
| 20260505205805 | 24 | 194 | 11.3 | 19.3 | 0.00 | 0.00 | 0.00 | 56 | 1016.3 |
| 20260505205705 | 24 | 107 | 6.4 | 19.3 | 0.00 | 0.00 | 0.00 | 56 | 1016.2 |
| 20260505205403 | 24 | 232 | 8.0 | 19.3 | 0.00 | 0.00 | 0.00 | 55 | 1016.2 |
| 20260505205305 | 24 | 227 | 11.3 | 19.3 | 0.00 | 0.00 | 0.00 | 56 | 1016.2 |
| 20260505205204 | 24 | 119 | 11.3 | 19.3 | 0.00 | 0.00 | 0.00 | 56 | 1016.1 |
| 20260505205105 | 24 | 192 | 9.7 | 19.3 | 0.00 | 0.00 | 0.00 | 56 | 1016.2 |
| 20260505205006 | 24 | 139 | 8.0 | 19.3 | 0.00 | 0.00 | 0.00 | 56 | 1016.1 |
| 20260505204906 | 24 | 90 | 6.4 | 19.3 | 0.00 | 0.00 | 0.00 | 56 | 1016.1 |
| 20260505204804 | 24 | 55 | 8.0 | 19.3 | 0.00 | 0.00 | 0.00 | 55 | 1016.1 |
| 20260505204704 | 24 | 128 | 8.0 | 19.3 | 0.00 | 0.00 | 0.00 | 55 | 1016.1 |
| 20260505204404 | 24 | 177 | 9.7 | 19.3 | 0.00 | 0.00 | 0.00 | 54 | 1016.1 |
| 20260505204104 | 24 | 165 | 9.7 | 25.7 | 0.00 | 0.00 | 0.00 | 55 | 1016.2 |
| 20260505204006 | 25 | 86 | 9.7 | 25.7 | 0.00 | 0.00 | 0.00 | 55 | 1016.1 |
| 20260505203904 | 25 | 312 | 11.3 | 25.7 | 0.00 | 0.00 | 0.00 | 54 | 1016.2 |
| 20260505203805 | 25 | 178 | 11.3 | 25.7 | 0.00 | 0.00 | 0.00 | 54 | 1016.2 |
| 20260505203704 | 25 | 156 | 9.7 | 25.7 | 0.00 | 0.00 | 0.00 | 54 | 1016.1 |
| 20260505203603 | 25 | 143 | 11.3 | 25.7 | 0.00 | 0.00 | 0.00 | 53 | 1016.2 |
| 20260505203506 | 25 | 194 | 11.3 | 25.7 | 0.00 | 0.00 | 0.00 | 53 | 1016.2 |
| 20260505203404 | 25 | 173 | 9.7 | 25.7 | 0.00 | 0.00 | 0.00 | 53 | 1016.1 |
| 20260505203204 | 25 | 265 | 8.0 | 17.7 | 0.00 | 0.00 | 0.00 | 54 | 1016.0 |
| 20260505203105 | 25 | 164 | 8.0 | 17.7 | 0.00 | 0.00 | 0.00 | 54 | 1016.1 |
| 20260505203007 | 25 | 66 | 6.4 | 17.7 | 0.00 | 0.00 | 0.00 | 54 | 1016.1 |
| 20260505202905 | 25 | 200 | 6.4 | 17.7 | 0.00 | 0.00 | 0.00 | 54 | 1016.0 |
| 20260505202804 | 25 | 55 | 8.0 | 17.7 | 0.00 | 0.00 | 0.00 | 54 | 1016.1 |
| 20260505202705 | 25 | 170 | 8.0 | 17.7 | 0.00 | 0.00 | 0.00 | 53 | 1016.1 |
| 20260505202605 | 25 | 173 | 8.0 | 17.7 | 0.00 | 0.00 | 0.00 | 53 | 1016.1 |
| 20260505202507 | 25 | 217 | 8.0 | 25.7 | 0.00 | 0.00 | 0.00 | 53 | 1016.1 |
| 20260505202404 | 25 | 225 | 6.4 | 25.7 | 0.00 | 0.00 | 0.00 | 53 | 1016.1 |
| 20260505202306 | 25 | 202 | 8.0 | 25.7 | 0.00 | 0.00 | 0.00 | 53 | 1016.1 |
| 20260505202204 | 25 | 67 | 9.7 | 25.7 | 0.00 | 0.00 | 0.00 | 53 | 1016.1 |
| 20260505202104 | 25 | 139 | 8.0 | 25.7 | 0.00 | 0.00 | 0.00 | 54 | 1016.1 |
| 20260505202005 | 25 | 100 | 8.0 | 25.7 | 0.00 | 0.00 | 0.00 | 52 | 1016.0 |
| 20260505201804 | 25 | 138 | 12.9 | 25.7 | 0.00 | 0.00 | 0.00 | 52 | 1016.1 |
| 20260505201704 | 25 | 150 | 9.7 | 27.4 | 0.00 | 0.00 | 0.00 | 53 | 1016.2 |
| 20260505201604 | 25 | 58 | 6.4 | 19.3 | 0.00 | 0.00 | 0.00 | 53 | 1016.1 |
| 20260505201507 | 25 | 223 | 8.0 | 22.5 | 0.00 | 0.00 | 0.00 | 52 | 1016.1 |
| 20260505201404 | 25 | 192 | 9.7 | 22.5 | 0.00 | 0.00 | 0.00 | 52 | 1016.1 |
| 20260505201305 | 25 | 153 | 9.7 | 20.9 | 0.00 | 0.00 | 0.00 | 52 | 1016.2 |
| 20260505201205 | 25 | 199 | 11.3 | 20.9 | 0.00 | 0.00 | 0.00 | 51 | 1016.2 |
| 20260505201103 | 25 | 167 | 9.7 | 20.9 | 0.00 | 0.00 | 0.00 | 53 | 1016.3 |
| 20260505201006 | 25 | 161 | 8.0 | 20.9 | 0.00 | 0.00 | 0.00 | 53 | 1016.3 |
| 20260505200804 | 25 | 140 | 9.7 | 20.9 | 0.00 | 0.00 | 0.00 | 53 | 1016.3 |
| 20260505200705 | 25 | 104 | 9.7 | 20.9 | 0.00 | 0.00 | 0.00 | 52 | 1016.3 |
| 20260505200604 | 25 | 127 | 11.3 | 22.5 | 0.00 | 0.00 | 0.00 | 51 | 1016.3 |
| 20260505200506 | 25 | 83 | 11.3 | 20.9 | 0.00 | 0.00 | 0.00 | 51 | 1016.4 |
| 20260505200404 | 25 | 200 | 8.0 | 22.5 | 0.00 | 0.00 | 0.00 | 51 | 1016.5 |
| 20260505200304 | 25 | 144 | 8.0 | 22.5 | 0.00 | 0.00 | 0.00 | 51 | 1016.4 |
| 20260505200205 | 25 | 178 | 9.7 | 22.5 | 0.00 | 0.00 | 0.00 | 52 | 1016.4 |
| 20260505200104 | 25 | 173 | 8.0 | 22.5 | 0.00 | 0.00 | 0.00 | 51 | 1016.5 |
| 20260505200007 | 25 | 86 | 9.7 | 22.5 | 0.00 | 0.00 | 0.00 | 52 | 1016.4 |
| 20260505195903 | 25 | 93 | 12.9 | 22.5 | 0.00 | 0.00 | 0.00 | 53 | 1016.5 |
| 20260505195802 | 25 | 130 | 9.7 | 25.7 | 0.00 | 0.00 | 0.00 | 52 | 1016.4 |
| 20260505195703 | 25 | 115 | 9.7 | 25.7 | 0.00 | 0.00 | 0.00 | 53 | 1016.4 |
| 20260505195603 | 25 | 132 | 11.3 | 25.7 | 0.00 | 0.00 | 0.00 | 52 | 1016.5 |
| 20260505195505 | 25 | 166 | 9.7 | 25.7 | 0.00 | 0.00 | 0.00 | 52 | 1016.6 |
| 20260505195404 | 25 | 93 | 9.7 | 25.7 | 0.00 | 0.00 | 0.00 | 52 | 1016.7 |
| 20260505195305 | 25 | 93 | 11.3 | 25.7 | 0.00 | 0.00 | 0.00 | 51 | 1016.7 |
| 20260505195203 | 25 | 157 | 11.3 | 25.7 | 0.00 | 0.00 | 0.00 | 51 | 1016.7 |
| 20260505195104 | 26 | 111 | 14.5 | 25.7 | 0.00 | 0.00 | 0.00 | 50 | 1016.7 |
| 20260505195006 | 26 | 190 | 16.1 | 25.7 | 0.00 | 0.00 | 0.00 | 51 | 1016.7 |
| 20260505194903 | 26 | 167 | 12.9 | 27.4 | 0.00 | 0.00 | 0.00 | 51 | 1016.7 |
| 20260505194803 | 26 | 133 | 11.3 | 20.9 | 0.00 | 0.00 | 0.00 | 51 | 1016.8 |
| 20260505194703 | 26 | 168 | 9.7 | 20.9 | 0.00 | 0.00 | 0.00 | 52 | 1016.8 |
| 20260505194604 | 26 | 143 | 6.4 | 20.9 | 0.00 | 0.00 | 0.00 | 52 | 1016.7 |
| 20260505194506 | 26 | 73 | 4.8 | 20.9 | 0.00 | 0.00 | 0.00 | 52 | 1016.8 |
| 20260505194402 | 26 | 202 | 4.8 | 20.9 | 0.00 | 0.00 | 0.00 | 52 | 1016.8 |
| 20260505194304 | 26 | 127 | 8.0 | 20.9 | 0.00 | 0.00 | 0.00 | 51 | 1016.8 |
| 20260505194203 | 26 | 98 | 12.9 | 20.9 | 0.00 | 0.00 | 0.00 | 51 | 1016.9 |
| 20260505194102 | 26 | 102 | 12.9 | 25.7 | 0.00 | 0.00 | 0.00 | 51 | 1016.9 |
| 20260505194005 | 26 | 169 | 9.7 | 20.9 | 0.00 | 0.00 | 0.00 | 52 | 1016.9 |
| 20260505193803 | 26 | 128 | 6.4 | 20.9 | 0.00 | 0.00 | 0.00 | 53 | 1017.0 |
| 20260505193703 | 26 | 153 | 9.7 | 22.5 | 0.00 | 0.00 | 0.00 | 51 | 1017.0 |
| 20260505193604 | 26 | 174 | 9.7 | 22.5 | 0.00 | 0.00 | 0.00 | 51 | 1016.9 |
| 20260505193505 | 26 | 186 | 9.7 | 22.5 | 0.00 | 0.00 | 0.00 | 54 | 1016.9 |
| 20260505193402 | 26 | 155 | 9.7 | 22.5 | 0.00 | 0.00 | 0.00 | 52 | 1016.9 |
| 20260505193304 | 26 | 159 | 8.0 | 22.5 | 0.00 | 0.00 | 0.00 | 52 | 1016.9 |
| 20260505193204 | 26 | 86 | 9.7 | 22.5 | 0.00 | 0.00 | 0.00 | 52 | 1017.0 |
| 20260505193103 | 26 | 135 | 11.3 | 22.5 | 0.00 | 0.00 | 0.00 | 51 | 1017.0 |
| 20260505193006 | 26 | 138 | 11.3 | 22.5 | 0.00 | 0.00 | 0.00 | 51 | 1017.0 |
| 20260505192804 | 26 | 137 | 8.0 | 20.9 | 0.00 | 0.00 | 0.00 | 53 | 1017.0 |
| 20260505192603 | 26 | 129 | 9.7 | 19.3 | 0.00 | 0.00 | 0.00 | 51 | 1017.1 |
| 20260505192505 | 26 | 82 | 8.0 | 19.3 | 0.00 | 0.00 | 0.00 | 51 | 1017.1 |
| 20260505192403 | 26 | 67 | 8.0 | 19.3 | 0.00 | 0.00 | 0.00 | 51 | 1017.1 |
| 20260505192305 | 26 | 182 | 6.4 | 25.7 | 0.00 | 0.00 | 0.00 | 49 | 1017.1 |
| 20260505192103 | 26 | 101 | 11.3 | 25.7 | 0.00 | 0.00 | 0.00 | 51 | 1017.2 |
| 20260505192005 | 26 | 100 | 8.0 | 25.7 | 0.00 | 0.00 | 0.00 | 51 | 1017.3 |
| 20260505191803 | 26 | 173 | 4.8 | 25.7 | 0.00 | 0.00 | 0.00 | 51 | 1017.2 |
| 20260505191703 | 26 | 159 | 8.0 | 25.7 | 0.00 | 0.00 | 0.00 | 52 | 1017.2 |
| 20260505191604 | 26 | 134 | 11.3 | 25.7 | 0.00 | 0.00 | 0.00 | 50 | 1017.3 |
| 20260505191505 | 26 | 143 | 9.7 | 25.7 | 0.00 | 0.00 | 0.00 | 50 | 1017.2 |
| 20260505191303 | 26 | 117 | 8.0 | 17.7 | 0.00 | 0.00 | 0.00 | 53 | 1017.3 |
| 20260505191203 | 26 | 175 | 8.0 | 17.7 | 0.00 | 0.00 | 0.00 | 53 | 1017.3 |
| 20260505190903 | 26 | 155 | 8.0 | 17.7 | 0.00 | 0.00 | 0.00 | 52 | 1017.4 |
| 20260505190802 | 26 | 213 | 6.4 | 17.7 | 0.00 | 0.00 | 0.00 | 54 | 1017.4 |
| 20260505190704 | 26 | 161 | 8.0 | 17.7 | 0.00 | 0.00 | 0.00 | 52 | 1017.4 |
| 20260505190403 | 26 | 136 | 8.0 | 16.1 | 0.00 | 0.00 | 0.00 | 52 | 1017.4 |
| 20260505190303 | 26 | 230 | 11.3 | 16.1 | 0.00 | 0.00 | 0.00 | 52 | 1017.4 |
| 20260505190204 | 26 | 167 | 9.7 | 17.7 | 0.00 | 0.00 | 0.00 | 52 | 1017.4 |
| 20260505190104 | 26 | 136 | 11.3 | 16.1 | 0.00 | 0.00 | 0.00 | 53 | 1017.3 |
| 20260505190007 | 26 | 178 | 11.3 | 16.1 | 0.00 | 0.00 | 0.00 | 53 | 1017.4 |
| 20260505185905 | 26 | 191 | 9.7 | 16.1 | 0.00 | 0.00 | 0.00 | 52 | 1017.3 |
| 20260505185703 | 26 | 198 | 6.4 | 24.1 | 0.00 | 0.00 | 0.00 | 52 | 1017.4 |
| 20260505185603 | 26 | 153 | 8.0 | 24.1 | 0.00 | 0.00 | 0.00 | 52 | 1017.4 |
| 20260505185506 | 26 | 190 | 11.3 | 24.1 | 0.00 | 0.00 | 0.00 | 52 | 1017.4 |
| 20260505185404 | 26 | 152 | 9.7 | 24.1 | 0.00 | 0.00 | 0.00 | 53 | 1017.4 |
| 20260505185305 | 26 | 127 | 8.0 | 24.1 | 0.00 | 0.00 | 0.00 | 54 | 1017.3 |
| 20260505185203 | 26 | 202 | 9.7 | 24.1 | 0.00 | 0.00 | 0.00 | 53 | 1017.4 |
| 20260505184703 | 26 | 96 | 9.7 | 20.9 | 0.00 | 0.00 | 0.00 | 53 | 1017.3 |
| 20260505184603 | 26 | 103 | 6.4 | 20.9 | 0.00 | 0.00 | 0.00 | 53 | 1017.3 |
| 20260505184506 | 26 | 85 | 8.0 | 20.9 | 0.00 | 0.00 | 0.00 | 54 | 1017.3 |
| 20260505184403 | 25 | 170 | 8.0 | 20.9 | 0.00 | 0.00 | 0.00 | 54 | 1017.3 |
| 20260505184303 | 25 | 209 | 8.0 | 20.9 | 0.00 | 0.00 | 0.00 | 54 | 1017.2 |
| 20260505184203 | 25 | 125 | 11.3 | 20.9 | 0.00 | 0.00 | 0.00 | 52 | 1017.2 |
| 20260505184103 | 26 | 205 | 9.7 | 20.9 | 0.00 | 0.00 | 0.00 | 53 | 1017.3 |
| 20260505184005 | 26 | 207 | 9.7 | 22.5 | 0.00 | 0.00 | 0.00 | 55 | 1017.1 |
| 20260505183904 | 26 | 97 | 12.9 | 22.5 | 0.00 | 0.00 | 0.00 | 54 | 1017.2 |
| 20260505183803 | 26 | 181 | 12.9 | 24.1 | 0.00 | 0.00 | 0.00 | 53 | 1017.3 |
| 20260505183703 | 26 | 120 | 11.3 | 19.3 | 0.00 | 0.00 | 0.00 | 53 | 1017.2 |
| 20260505183604 | 26 | 163 | 11.3 | 17.7 | 0.00 | 0.00 | 0.00 | 53 | 1017.3 |
| 20260505183506 | 26 | 180 | 11.3 | 17.7 | 0.00 | 0.00 | 0.00 | 53 | 1017.3 |
| 20260505183403 | 26 | 136 | 12.9 | 17.7 | 0.00 | 0.00 | 0.00 | 53 | 1017.3 |
| 20260505183303 | 26 | 147 | 9.7 | 17.7 | 0.00 | 0.00 | 0.00 | 53 | 1017.2 |
| 20260505183204 | 26 | 162 | 9.7 | 19.3 | 0.00 | 0.00 | 0.00 | 52 | 1017.2 |
| 20260505183103 | 26 | 85 | 9.7 | 20.9 | 0.00 | 0.00 | 0.00 | 53 | 1017.2 |
| 20260505183007 | 26 | 156 | 9.7 | 19.3 | 0.00 | 0.00 | 0.00 | 54 | 1017.2 |
| 20260505182703 | 26 | 232 | 9.7 | 19.3 | 0.00 | 0.00 | 0.00 | 53 | 1017.2 |
| 20260505182603 | 26 | 127 | 9.7 | 19.3 | 0.00 | 0.00 | 0.00 | 53 | 1017.3 |
| 20260505182505 | 26 | 103 | 9.7 | 19.3 | 0.00 | 0.00 | 0.00 | 53 | 1017.1 |
| 20260505182403 | 26 | 125 | 9.7 | 22.5 | 0.00 | 0.00 | 0.00 | 52 | 1017.1 |
| 20260505182305 | 26 | 178 | 8.0 | 19.3 | 0.00 | 0.00 | 0.00 | 53 | 1017.1 |
| 20260505182203 | 26 | 84 | 8.0 | 19.3 | 0.00 | 0.00 | 0.00 | 55 | 1017.1 |
| 20260505182103 | 26 | 141 | 9.7 | 19.3 | 0.00 | 0.00 | 0.00 | 54 | 1017.0 |
| 20260505182006 | 26 | 141 | 9.7 | 19.3 | 0.00 | 0.00 | 0.00 | 53 | 1017.0 |
| 20260505181904 | 26 | 94 | 9.7 | 19.3 | 0.00 | 0.00 | 0.00 | 54 | 1017.0 |
| 20260505181803 | 26 | 173 | 9.7 | 19.3 | 0.00 | 0.00 | 0.00 | 54 | 1017.1 |
| 20260505181703 | 26 | 78 | 9.7 | 19.3 | 0.00 | 0.00 | 0.00 | 54 | 1017.0 |
| 20260505181603 | 26 | 214 | 11.3 | 19.3 | 0.00 | 0.00 | 0.00 | 53 | 1017.0 |
| 20260505181506 | 26 | 144 | 11.3 | 19.3 | 0.00 | 0.00 | 0.00 | 54 | 1017.1 |
| 20260505181403 | 26 | 149 | 11.3 | 19.3 | 0.00 | 0.00 | 0.00 | 54 | 1017.1 |
| 20260505181303 | 26 | 140 | 12.9 | 19.3 | 0.00 | 0.00 | 0.00 | 54 | 1017.0 |
| 20260505181203 | 26 | 182 | 8.0 | 19.3 | 0.00 | 0.00 | 0.00 | 54 | 1017.1 |
| 20260505180903 | 26 | 142 | 9.7 | 19.3 | 0.00 | 0.00 | 0.00 | 55 | 1017.1 |
| 20260505180804 | 26 | 159 | 8.0 | 19.3 | 0.00 | 0.00 | 0.00 | 55 | 1017.1 |
| 20260505180704 | 26 | 156 | 6.4 | 17.7 | 0.00 | 0.00 | 0.00 | 56 | 1017.1 |
| 20260505180603 | 26 | 230 | 9.7 | 17.7 | 0.00 | 0.00 | 0.00 | 55 | 1017.2 |
| 20260505180506 | 26 | 142 | 9.7 | 17.7 | 0.00 | 0.00 | 0.00 | 56 | 1017.1 |
| 20260505180302 | 26 | 189 | 9.7 | 17.7 | 0.00 | 0.00 | 0.00 | 54 | 1017.1 |
| 20260505180203 | 26 | 164 | 9.7 | 17.7 | 0.00 | 0.00 | 0.00 | 55 | 1017.1 |
| 20260505180007 | 26 | 189 | 11.3 | 17.7 | 0.00 | 0.00 | 0.00 | 54 | 1017.1 |
| 20260505175802 | 26 | 119 | 8.0 | 19.3 | 0.00 | 0.00 | 0.00 | 54 | 1017.1 |
| 20260505175703 | 26 | 177 | 11.3 | 22.5 | 0.00 | 0.00 | 0.00 | 53 | 1017.1 |
| 20260505175602 | 26 | 134 | 9.7 | 22.5 | 0.00 | 0.00 | 0.00 | 55 | 1017.3 |
| 20260505175506 | 26 | 107 | 8.0 | 22.5 | 0.00 | 0.00 | 0.00 | 56 | 1017.1 |
| 20260505175404 | 26 | 150 | 8.0 | 22.5 | 0.00 | 0.00 | 0.00 | 53 | 1017.2 |
| 20260505175305 | 26 | 155 | 8.0 | 22.5 | 0.00 | 0.00 | 0.00 | 53 | 1017.2 |
| 20260505175203 | 26 | 81 | 6.4 | 22.5 | 0.00 | 0.00 | 0.00 | 54 | 1017.1 |
| 20260505174903 | 26 | 161 | 11.3 | 22.5 | 0.00 | 0.00 | 0.00 | 53 | 1017.1 |
| 20260505174603 | 26 | 117 | 4.8 | 20.9 | 0.00 | 0.00 | 0.00 | 53 | 1017.1 |
| 20260505174506 | 26 | 155 | 6.4 | 20.9 | 0.00 | 0.00 | 0.00 | 54 | 1017.0 |
| 20260505174402 | 26 | 171 | 8.0 | 20.9 | 0.00 | 0.00 | 0.00 | 53 | 1017.0 |
| 20260505174303 | 26 | 97 | 12.9 | 20.9 | 0.00 | 0.00 | 0.00 | 53 | 1017.1 |
| 20260505174204 | 26 | 81 | 11.3 | 20.9 | 0.00 | 0.00 | 0.00 | 53 | 1017.0 |
| 20260505173904 | 26 | 151 | 9.7 | 20.9 | 0.00 | 0.00 | 0.00 | 55 | 1016.9 |
| 20260505173803 | 26 | 169 | 6.4 | 20.9 | 0.00 | 0.00 | 0.00 | 56 | 1017.0 |
| 20260505173703 | 26 | 165 | 8.0 | 20.9 | 0.00 | 0.00 | 0.00 | 54 | 1016.9 |
| 20260505173604 | 26 | 96 | 6.4 | 20.9 | 0.00 | 0.00 | 0.00 | 53 | 1017.0 |
| 20260505173506 | 26 | 159 | 8.0 | 20.9 | 0.00 | 0.00 | 0.00 | 55 | 1017.1 |
| 20260505173303 | 26 | 194 | 8.0 | 17.7 | 0.00 | 0.00 | 0.00 | 54 | 1017.1 |
| 20260505173204 | 26 | 155 | 6.4 | 14.5 | 0.00 | 0.00 | 0.00 | 53 | 1017.2 |
| 20260505173103 | 26 | 98 | 6.4 | 19.3 | 0.00 | 0.00 | 0.00 | 54 | 1017.3 |
| 20260505173006 | 26 | 80 | 6.4 | 19.3 | 0.00 | 0.00 | 0.00 | 54 | 1017.2 |
| 20260505172903 | 26 | 145 | 8.0 | 19.3 | 0.00 | 0.00 | 0.00 | 56 | 1017.3 |
| 20260505172803 | 26 | 169 | 6.4 | 19.3 | 0.00 | 0.00 | 0.00 | 54 | 1017.4 |
| 20260505172703 | 26 | 145 | 4.8 | 19.3 | 0.00 | 0.00 | 0.00 | 56 | 1017.4 |
| 20260505172603 | 26 | 154 | 4.8 | 19.3 | 0.00 | 0.00 | 0.00 | 56 | 1017.3 |
| 20260505172506 | 25 | 92 | 6.4 | 19.3 | 0.00 | 0.00 | 0.00 | 55 | 1017.4 |
| 20260505172305 | 25 | 98 | 9.7 | 19.3 | 0.00 | 0.00 | 0.00 | 55 | 1017.5 |
| 20260505172203 | 25 | 105 | 8.0 | 19.3 | 0.00 | 0.00 | 0.00 | 55 | 1017.5 |
| 20260505172103 | 25 | 146 | 6.4 | 20.9 | 0.00 | 0.00 | 0.00 | 55 | 1017.5 |
| 20260505172006 | 25 | 234 | 8.0 | 17.7 | 0.00 | 0.00 | 0.00 | 55 | 1017.5 |
| 20260505171903 | 25 | 74 | 9.7 | 17.7 | 0.00 | 0.00 | 0.00 | 53 | 1017.5 |
| 20260505171803 | 25 | 155 | 8.0 | 17.7 | 0.00 | 0.00 | 0.00 | 54 | 1017.4 |
| 20260505171702 | 25 | 136 | 8.0 | 17.7 | 0.00 | 0.00 | 0.00 | 54 | 1017.5 |
| 20260505171604 | 25 | 48 | 8.0 | 17.7 | 0.00 | 0.00 | 0.00 | 54 | 1017.5 |
| 20260505171506 | 25 | 188 | 12.9 | 17.7 | 0.00 | 0.00 | 0.00 | 53 | 1017.5 |
| 20260505171403 | 25 | 159 | 11.3 | 17.7 | 0.00 | 0.00 | 0.00 | 54 | 1017.5 |
| 20260505171303 | 25 | 173 | 9.7 | 17.7 | 0.00 | 0.00 | 0.00 | 54 | 1017.5 |
| 20260505171204 | 25 | 175 | 9.7 | 17.7 | 0.00 | 0.00 | 0.00 | 54 | 1017.4 |
| 20260505170903 | 25 | 203 | 4.8 | 22.5 | 0.00 | 0.00 | 0.00 | 55 | 1017.5 |
| 20260505170804 | 25 | 82 | 6.4 | 22.5 | 0.00 | 0.00 | 0.00 | 54 | 1017.5 |
| 20260505170703 | 25 | 145 | 8.0 | 22.5 | 0.00 | 0.00 | 0.00 | 53 | 1017.5 |
| 20260505170604 | 25 | 215 | 8.0 | 22.5 | 0.00 | 0.00 | 0.00 | 54 | 1017.6 |
| 20260505170506 | 25 | 142 | 6.4 | 22.5 | 0.00 | 0.00 | 0.00 | 53 | 1017.6 |
| 20260505170402 | 25 | 118 | 6.4 | 22.5 | 0.00 | 0.00 | 0.00 | 53 | 1017.7 |
| 20260505170304 | 25 | 178 | 8.0 | 22.5 | 0.00 | 0.00 | 0.00 | 54 | 1017.7 |
| 20260505170204 | 25 | 163 | 9.7 | 22.5 | 0.00 | 0.00 | 0.00 | 54 | 1017.6 |
| 20260505170006 | 25 | 207 | 9.7 | 24.1 | 0.00 | 0.00 | 0.00 | 53 | 1017.6 |
| 20260505165903 | 25 | 195 | 6.4 | 14.5 | 0.00 | 0.00 | 0.00 | 53 | 1017.6 |
| 20260505165603 | 26 | 182 | 8.0 | 14.5 | 0.00 | 0.00 | 0.00 | 52 | 1017.6 |
| 20260505165505 | 26 | 159 | 9.7 | 14.5 | 0.00 | 0.00 | 0.00 | 52 | 1017.6 |
| 20260505165403 | 26 | 182 | 8.0 | 14.5 | 0.00 | 0.00 | 0.00 | 53 | 1017.6 |
| 20260505165306 | 26 | 175 | 6.4 | 12.9 | 0.00 | 0.00 | 0.00 | 53 | 1017.6 |
| 20260505165203 | 25 | 144 | 6.4 | 14.5 | 0.00 | 0.00 | 0.00 | 55 | 1017.7 |
| 20260505164903 | 25 | 77 | 4.8 | 16.1 | 0.00 | 0.00 | 0.00 | 54 | 1017.7 |
| 20260505164804 | 25 | 84 | 4.8 | 16.1 | 0.00 | 0.00 | 0.00 | 56 | 1017.7 |
| 20260505164603 | 25 | 165 | 4.8 | 16.1 | 0.00 | 0.00 | 0.00 | 54 | 1017.7 |
| 20260505164505 | 25 | 117 | 6.4 | 16.1 | 0.00 | 0.00 | 0.00 | 54 | 1017.8 |
| 20260505164403 | 25 | 144 | 8.0 | 16.1 | 0.00 | 0.00 | 0.00 | 54 | 1017.8 |
| 20260505164303 | 25 | 128 | 8.0 | 16.1 | 0.00 | 0.00 | 0.00 | 56 | 1017.7 |
| 20260505164203 | 25 | 177 | 11.3 | 16.1 | 0.00 | 0.00 | 0.00 | 55 | 1017.6 |
| 20260505164103 | 25 | 248 | 11.3 | 16.1 | 0.00 | 0.00 | 0.00 | 54 | 1017.7 |
| 20260505164006 | 25 | 186 | 8.0 | 14.5 | 0.00 | 0.00 | 0.00 | 56 | 1017.8 |
| 20260505163903 | 25 | 171 | 8.0 | 12.9 | 0.00 | 0.00 | 0.00 | 55 | 1017.8 |
| 20260505163603 | 25 | 212 | 6.4 | 16.1 | 0.00 | 0.00 | 0.00 | 56 | 1017.8 |
| 20260505163505 | 25 | 175 | 6.4 | 16.1 | 0.00 | 0.00 | 0.00 | 57 | 1017.9 |
| 20260505163403 | 25 | 167 | 3.2 | 16.1 | 0.00 | 0.00 | 0.00 | 56 | 1017.9 |
| 20260505163304 | 25 | 163 | 3.2 | 16.1 | 0.00 | 0.00 | 0.00 | 56 | 1017.9 |
| 20260505163203 | 25 | 133 | 4.8 | 16.1 | 0.00 | 0.00 | 0.00 | 56 | 1017.9 |
| 20260505163104 | 25 | 200 | 9.7 | 16.1 | 0.00 | 0.00 | 0.00 | 55 | 1017.9 |
| 20260505163009 | 25 | 205 | 11.3 | 16.1 | 0.00 | 0.00 | 0.00 | 55 | 1017.9 |
| 20260505162905 | 25 | 196 | 8.0 | 17.7 | 0.00 | 0.00 | 0.00 | 57 | 1018.0 |
| 20260505162803 | 25 | 182 | 4.8 | 16.1 | 0.00 | 0.00 | 0.00 | 55 | 1017.9 |
| 20260505162703 | 25 | 92 | 6.4 | 16.1 | 0.00 | 0.00 | 0.00 | 56 | 1018.0 |
| 20260505162603 | 24 | 204 | 6.4 | 16.1 | 0.00 | 0.00 | 0.00 | 54 | 1018.0 |
| 20260505162506 | 25 | 191 | 8.0 | 16.1 | 0.00 | 0.00 | 0.00 | 54 | 1018.0 |
| 20260505162403 | 25 | 116 | 9.7 | 16.1 | 0.00 | 0.00 | 0.00 | 54 | 1018.0 |
| 20260505162306 | 25 | 207 | 6.4 | 14.5 | 0.00 | 0.00 | 0.00 | 55 | 1018.1 |
| 20260505162203 | 25 | 175 | 3.2 | 14.5 | 0.00 | 0.00 | 0.00 | 55 | 1018.0 |
| 20260505162103 | 25 | 92 | 3.2 | 11.3 | 0.00 | 0.00 | 0.00 | 56 | 1018.2 |
| 20260505162006 | 24 | 174 | 3.2 | 14.5 | 0.00 | 0.00 | 0.00 | 56 | 1018.2 |
| 20260505161803 | 24 | 78 | 6.4 | 14.5 | 0.00 | 0.00 | 0.00 | 54 | 1018.2 |
| 20260505161703 | 24 | 186 | 6.4 | 16.1 | 0.00 | 0.00 | 0.00 | 56 | 1018.3 |
| 20260505161603 | 24 | 169 | 6.4 | 16.1 | 0.00 | 0.00 | 0.00 | 55 | 1018.2 |
| 20260505161506 | 24 | 167 | 6.4 | 16.1 | 0.00 | 0.00 | 0.00 | 55 | 1018.2 |
| 20260505161403 | 24 | 219 | 6.4 | 16.1 | 0.00 | 0.00 | 0.00 | 57 | 1018.2 |
| 20260505161303 | 24 | 231 | 8.0 | 16.1 | 0.00 | 0.00 | 0.00 | 56 | 1018.3 |
| 20260505161203 | 24 | 155 | 8.0 | 16.1 | 0.00 | 0.00 | 0.00 | 56 | 1018.3 |
| 20260505161103 | 24 | 212 | 8.0 | 16.1 | 0.00 | 0.00 | 0.00 | 56 | 1018.3 |
| 20260505161006 | 24 | 177 | 9.7 | 16.1 | 0.00 | 0.00 | 0.00 | 56 | 1018.3 |
| 20260505160904 | 24 | 192 | 9.7 | 16.1 | 0.00 | 0.00 | 0.00 | 56 | 1018.3 |
| 20260505160803 | 24 | 191 | 6.4 | 16.1 | 0.00 | 0.00 | 0.00 | 57 | 1018.3 |
| 20260505160703 | 24 | 198 | 6.4 | 12.9 | 0.00 | 0.00 | 0.00 | 58 | 1018.2 |
| 20260505160403 | 24 | 266 | 4.8 | 12.9 | 0.00 | 0.00 | 0.00 | 58 | 1018.3 |
| 20260505160303 | 24 | 140 | 4.8 | 11.3 | 0.00 | 0.00 | 0.00 | 59 | 1018.2 |
| 20260505160204 | 24 | 117 | 4.8 | 11.3 | 0.00 | 0.00 | 0.00 | 61 | 1018.2 |
| 20260505153203 | 24 | 173 | 6.4 | 16.1 | 0.00 | 0.00 | 0.00 | 60 | 1018.3 |
| 20260505153103 | 24 | 148 | 9.7 | 16.1 | 0.00 | 0.00 | 0.00 | 60 | 1018.3 |
| 20260505153006 | 24 | 205 | 9.7 | 16.1 | 0.00 | 0.00 | 0.00 | 60 | 1018.4 |
| 20260505152903 | 24 | 200 | 9.7 | 16.1 | 0.00 | 0.00 | 0.00 | 61 | 1018.3 |
| 20260505152803 | 24 | 154 | 8.0 | 16.1 | 0.00 | 0.00 | 0.00 | 60 | 1018.3 |
| 20260505152703 | 23 | 144 | 4.8 | 16.1 | 0.00 | 0.00 | 0.00 | 61 | 1018.3 |
| 20260505152604 | 23 | 111 | 6.4 | 16.1 | 0.00 | 0.00 | 0.00 | 61 | 1018.3 |
| 20260505152506 | 23 | 103 | 8.0 | 16.1 | 0.00 | 0.00 | 0.00 | 63 | 1018.3 |
| 20260505152305 | 23 | 88 | 1.6 | 9.7 | 0.00 | 0.00 | 0.00 | 62 | 1018.3 |
| 20260505152204 | 23 | 162 | 1.6 | 9.7 | 0.00 | 0.00 | 0.00 | 63 | 1018.3 |
| 20260505151903 | 23 | 56 | 4.8 | 14.5 | 0.00 | 0.00 | 0.00 | 62 | 1018.3 |
| 20260505151803 | 23 | 221 | 3.2 | 14.5 | 0.00 | 0.00 | 0.00 | 62 | 1018.3 |
| 20260505151403 | 23 | 149 | 4.8 | 16.1 | 0.00 | 0.00 | 0.00 | 64 | 1018.4 |
| 20260505151203 | 23 | 173 | 6.4 | 16.1 | 0.00 | 0.00 | 0.00 | 65 | 1018.3 |
| 20260505151103 | 23 | 59 | 4.8 | 16.1 | 0.00 | 0.00 | 0.00 | 64 | 1018.3 |
| 20260505151006 | 23 | 204 | 3.2 | 16.1 | 0.00 | 0.00 | 0.00 | 66 | 1018.3 |